                ,  0.865,  0.965,  1.065,  1.165,  1.265,  1.365,  1.465,  1.565,  1.665,  1.765,  1.865,  1.965,  2.065,  2.165,  2.265,  2.365,  2.465,  2.565,  2.665,  2.765,  2.865,  2.965,  3.065,  3.165,  3.265,  3.365,  3.465,  3.565,  3.665,  3.765,  3.865,  3.965,  4.065,  4.165,  4.265,  4.365,  4.465,  4.565,  4.665,  4.765,  4.865,  4.965,  5.065,  5.165,  5.265,  5.365,  5.465,  5.565,  5.665,  5.765,  5.865,  5.965
1999/03/10 00:00,  999.0,  999.0,  999.0,   -0.3,    0.0,    0.0,   -0.1,   -0.4,   -0.1,   -0.3,   -0.3,   -0.3,   -0.3,   -0.4,   -0.2,   -0.4,   -0.4,   -0.5,   -0.4,   -0.4,   -0.5,   -0.5,   -0.3,   -0.4,   -0.5,   -0.5,   -0.3,   -0.3,   -0.4,   -0.3,   -0.5,   -0.4,   -0.3,   -0.5,   -0.2,   -0.6,   -0.4,   -0.3,   -0.4,   -0.3,   -0.7,   -0.6,   -0.4,   -0.6,   -0.4,   -0.4,   -0.3,   -0.4,   -0.3,   -0.5,   -0.4,   -0.4
1999/03/10 00:10,  999.0,  999.0,  999.0,   -0.5,   -0.1,   -0.1,   -0.2,   -0.3,   -0.3,   -0.4,   -0.4,   -0.3,   -0.4,   -0.5,   -0.4,   -0.4,   -0.4,   -0.5,   -0.5,   -0.5,   -0.4,   -0.5,   -0.5,   -0.5,   -0.4,   -0.5,   -0.4,   -0.3,   -0.5,   -0.5,   -0.6,   -0.6,   -0.5,   -0.6,   -0.3,   -0.4,   -0.6,   -0.3,   -0.5,   -0.4,   -0.5,   -0.5,   -0.6,   -0.4,   -0.3,   -0.6,   -0.6,   -0.5,   -0.4,   -0.5,   -0.3,   -0.6
1999/03/10 00:20,  999.0,  999.0,  999.0,   -0.5,   -0.2,   -0.3,   -0.3,   -0.5,   -0.3,   -0.4,   -0.4,   -0.4,   -0.4,   -0.4,   -0.5,   -0.4,   -0.5,   -0.5,   -0.5,   -0.4,   -0.4,   -0.4,   -0.5,   -0.5,   -0.6,   -0.5,   -0.4,   -0.5,   -0.5,   -0.6,   -0.6,   -0.5,   -0.5,   -0.6,   -0.6,   -0.5,   -0.6,   -0.5,   -0.5,   -0.4,   -0.5,   -0.6,   -0.6,   -0.5,   -0.5,   -0.5,   -0.5,   -0.5,   -0.5,   -0.6,   -0.5,   -0.5
1999/03/10 00:30,  999.0,  999.0,  999.0,   -0.7,   -0.3,   -0.3,   -0.4,   -0.4,   -0.3,   -0.6,   -0.5,   -0.4,   -0.5,   -0.5,   -0.5,   -0.5,   -0.5,   -0.6,   -0.6,   -0.5,   -0.5,   -0.5,   -0.5,   -0.6,   -0.4,   -0.4,   -0.5,   -0.5,   -0.6,   -0.4,   -0.5,   -0.5,   -0.5,   -0.5,   -0.4,   -0.5,   -0.5,   -0.6,   -0.6,   -0.5,   -0.6,   -0.5,   -0.4,   -0.5,   -0.5,   -0.5,   -0.7,   -0.6,   -0.5,   -0.5,   -0.5,   -0.5
1999/03/10 00:40,  999.0,  999.0,  999.0,   -0.5,   -0.2,   -0.2,   -0.4,   -0.4,   -0.4,   -0.5,   -0.5,   -0.5,   -0.4,   -0.5,   -0.4,   -0.4,   -0.5,   -0.4,   -0.4,   -0.4,   -0.5,   -0.4,   -0.5,   -0.5,   -0.4,   -0.5,   -0.6,   -0.4,   -0.5,   -0.5,   -0.6,   -0.5,   -0.5,   -0.5,   -0.6,   -0.5,   -0.5,   -0.5,   -0.4,   -0.4,   -0.6,   -0.4,   -0.6,   -0.5,   -0.5,   -0.5,   -0.5,   -0.4,   -0.5,   -0.5,   -0.5,   -0.4
1999/03/10 00:50,  999.0,  999.0,  999.0,   -0.6,   -0.2,   -0.3,   -0.3,   -0.4,   -0.3,   -0.4,   -0.5,   -0.4,   -0.4,   -0.4,   -0.4,   -0.4,   -0.5,   -0.6,   -0.4,   -0.4,   -0.5,   -0.5,   -0.6,   -0.5,   -0.6,   -0.6,   -0.5,   -0.4,   -0.4,   -0.6,   -0.5,   -0.6,   -0.7,   -0.5,   -0.6,   -0.4,   -0.5,   -0.5,   -0.5,   -0.5,   -0.6,   -0.4,   -0.5,   -0.5,   -0.4,   -0.5,   -0.6,   -0.4,   -0.4,   -0.5,   -0.5,   -0.4
1999/03/10 01:00,  999.0,  999.0,  999.0,   -0.6,   -0.2,   -0.3,   -0.4,   -0.4,   -0.3,   -0.4,   -0.5,   -0.5,   -0.4,   -0.5,   -0.5,   -0.4,   -0.4,   -0.4,   -0.5,   -0.5,   -0.4,   -0.4,   -0.6,   -0.5,   -0.5,   -0.4,   -0.5,   -0.5,   -0.5,   -0.5,   -0.5,   -0.6,   -0.4,   -0.5,   -0.5,   -0.6,   -0.5,   -0.4,   -0.7,   -0.5,   -0.5,   -0.6,   -0.4,   -0.5,   -0.3,   -0.5,   -0.5,   -0.5,   -0.6,   -0.5,   -0.5,   -0.5
1999/03/10 01:10,  999.0,  999.0,  999.0,   -0.6,   -0.4,   -0.4,   -0.4,   -0.4,   -0.4,   -0.6,   -0.3,   -0.5,   -0.5,   -0.7,   -0.3,   -0.3,   -0.4,   -0.6,   -0.5,   -0.5,   -0.6,   -0.5,   -0.6,   -0.5,   -0.5,   -0.6,   -0.5,   -0.5,   -0.5,   -0.5,   -0.6,   -0.6,   -0.6,   -0.6,   -0.5,   -0.6,   -0.5,   -0.5,   -0.5,   -0.4,   -0.5,   -0.6,   -0.5,   -0.5,   -0.5,   -0.6,   -0.6,   -0.6,   -0.5,   -0.4,   -0.6,   -0.6
1999/03/10 01:20,  999.0,  999.0,  999.0,   -0.8,   -0.1,   -0.2,   -0.3,   -0.4,   -0.3,   -0.5,   -0.4,   -0.4,   -0.4,   -0.5,   -0.3,   -0.4,   -0.5,   -0.5,   -0.6,   -0.5,   -0.5,   -0.5,   -0.6,   -0.5,   -0.5,   -0.5,   -0.6,   -0.5,   -0.6,   -0.6,   -0.5,   -0.5,   -0.6,   -0.5,   -0.5,   -0.6,   -0.6,   -0.5,   -0.7,   -0.5,   -0.6,   -0.5,   -0.4,   -0.5,   -0.5,   -0.5,   -0.5,   -0.6,   -0.4,   -0.5,   -0.5,   -0.5
1999/03/10 01:30,  999.0,  999.0,  999.0,   -0.8,   -0.3,   -0.3,   -0.3,   -0.4,   -0.3,   -0.4,   -0.5,   -0.5,   -0.3,   -0.5,   -0.4,   -0.6,   -0.6,   -0.3,   -0.4,   -0.5,   -0.5,   -0.5,   -0.5,   -0.5,   -0.4,   -0.5,   -0.6,   -0.5,   -0.6,   -0.5,   -0.5,   -0.5,   -0.4,   -0.6,   -0.5,   -0.5,   -0.5,   -0.6,   -0.6,   -0.6,   -0.5,   -0.5,   -0.6,   -0.4,   -0.4,   -0.5,   -0.7,   -0.4,   -0.4,   -0.4,   -0.6,   -0.5
1999/03/10 01:40,  999.0,  999.0,  999.0,   -0.8,   -0.2,   -0.3,   -0.4,   -0.4,   -0.3,   -0.5,   -0.5,   -0.5,   -0.5,   -0.5,   -0.5,   -0.4,   -0.5,   -0.4,   -0.3,   -0.5,   -0.4,   -0.5,   -0.5,   -0.5,   -0.4,   -0.5,   -0.5,   -0.5,   -0.4,   -0.5,   -0.5,   -0.6,   -0.5,   -0.5,   -0.5,   -0.6,   -0.5,   -0.5,   -0.6,   -0.5,   -0.5,   -0.6,   -0.6,   -0.5,   -0.5,   -0.5,   -0.5,   -0.6,   -0.5,   -0.6,   -0.6,   -0.5
1999/03/10 01:50,  999.0,  999.0,  999.0,   -0.6,   -0.2,   -0.2,   -0.1,   -0.3,   -0.3,   -0.4,   -0.3,   -0.5,   -0.5,   -0.5,   -0.4,   -0.5,   -0.6,   -0.4,   -0.5,   -0.4,   -0.5,   -0.6,   -0.5,   -0.5,   -0.4,   -0.6,   -0.6,   -0.5,   -0.4,   -0.5,   -0.6,   -0.6,   -0.5,   -0.5,   -0.4,   -0.5,   -0.5,   -0.6,   -0.5,   -0.5,   -0.5,   -0.5,   -0.5,   -0.6,   -0.5,   -0.5,   -0.5,   -0.5,   -0.5,   -0.6,   -0.6,   -0.6
1999/03/10 02:00,  999.0,  999.0,  999.0,   -0.6,   -0.3,   -0.3,   -0.3,   -0.4,   -0.3,   -0.5,   -0.5,   -0.5,   -0.5,   -0.4,   -0.4,   -0.6,   -0.6,   -0.5,   -0.5,   -0.5,   -0.5,   -0.6,   -0.4,   -0.5,   -0.5,   -0.7,   -0.5,   -0.6,   -0.4,   -0.6,   -0.6,   -0.6,   -0.5,   -0.7,   -0.5,   -0.5,   -0.5,   -0.5,   -0.4,   -0.5,   -0.6,   -0.5,   -0.4,   -0.6,   -0.6,   -0.7,   -0.6,   -0.5,   -0.6,   -0.5,   -0.6,   -0.6
1999/03/10 02:10,  999.0,  999.0,  999.0,   -0.9,   -0.2,   -0.1,   -0.3,   -0.4,   -0.3,   -0.5,   -0.5,   -0.6,   -0.4,   -0.5,   -0.5,   -0.5,   -0.5,   -0.5,   -0.3,   -0.5,   -0.4,   -0.6,   -0.5,   -0.5,   -0.5,   -0.5,   -0.5,   -0.6,   -0.5,   -0.6,   -0.5,   -0.6,   -0.5,   -0.5,   -0.5,   -0.6,   -0.6,   -0.5,   -0.5,   -0.5,   -0.6,   -0.4,   -0.6,   -0.5,   -0.4,   -0.5,   -0.6,   -0.5,   -0.5,   -0.6,   -0.5,   -0.5
1999/03/10 02:20,  999.0,  999.0,  999.0,   -0.9,   -0.2,   -0.3,   -0.2,   -0.3,   -0.3,   -0.4,   -0.4,   -0.4,   -0.5,   -0.5,   -0.6,   -0.3,   -0.5,   -0.6,   -0.6,   -0.5,   -0.5,   -0.5,   -0.6,   -0.4,   -0.5,   -0.5,   -0.6,   -0.5,   -0.5,   -0.5,   -0.6,   -0.5,   -0.5,   -0.6,   -0.5,   -0.5,   -0.6,   -0.5,   -0.7,   -0.4,   -0.5,   -0.5,   -0.5,   -0.5,   -0.4,   -0.5,   -0.6,   -0.5,   -0.5,   -0.5,   -0.6,   -0.4
1999/03/10 02:30,  999.0,  999.0,  999.0,   -0.6,   -0.0,   -0.1,   -0.2,   -0.5,   -0.4,   -0.4,   -0.4,   -0.5,   -0.6,   -0.5,   -0.5,   -0.6,   -0.4,   -0.5,   -0.6,   -0.5,   -0.5,   -0.5,   -0.5,   -0.5,   -0.6,   -0.6,   -0.6,   -0.6,   -0.5,   -0.5,   -0.6,   -0.5,   -0.4,   -0.5,   -0.6,   -0.6,   -0.5,   -0.5,   -0.5,   -0.5,   -0.6,   -0.6,   -0.6,   -0.5,   -0.5,   -0.6,   -0.7,   -0.5,   -0.6,   -0.5,   -0.6,   -0.6
1999/03/10 02:40,  999.0,  999.0,  999.0,   -0.7,   -0.2,   -0.2,   -0.2,   -0.4,   -0.4,   -0.4,   -0.4,   -0.5,   -0.5,   -0.5,   -0.4,   -0.4,   -0.5,   -0.4,   -0.4,   -0.5,   -0.7,   -0.5,   -0.3,   -0.4,   -0.6,   -0.6,   -0.6,   -0.6,   -0.6,   -0.5,   -0.7,   -0.5,   -0.5,   -0.5,   -0.6,   -0.5,   -0.5,   -0.6,   -0.6,   -0.5,   -0.6,   -0.5,   -0.5,   -0.5,   -0.5,   -0.5,   -0.6,   -0.5,   -0.5,   -0.5,   -0.6,   -0.5
1999/03/10 02:50,  999.0,  999.0,  999.0,   -1.0,   -0.2,   -0.4,   -0.4,   -0.5,   -0.5,   -0.6,   -0.5,   -0.6,   -0.7,   -0.6,   -0.5,   -0.5,   -0.5,   -0.6,   -0.6,   -0.5,   -0.6,   -0.5,   -0.5,   -0.5,   -0.5,   -0.4,   -0.5,   -0.5,   -0.6,   -0.5,   -0.6,   -0.5,   -0.7,   -0.5,   -0.5,   -0.5,   -0.4,   -0.5,   -0.6,   -0.5,   -0.4,   -0.5,   -0.4,   -0.5,   -0.6,   -0.6,   -0.6,   -0.6,   -0.6,   -0.7,   -0.7,   -0.6
1999/03/10 03:00,  999.0,  999.0,  999.0,   -0.6,   -0.4,   -0.3,   -0.5,   -0.4,   -0.4,   -0.8,   -0.6,   -0.4,   -0.6,   -0.4,   -0.5,   -0.3,   -0.5,   -0.4,   -0.5,   -0.4,   -0.5,   -0.6,   -0.4,   -0.4,   -0.6,   -0.4,   -0.5,   -0.4,   -0.5,   -0.5,   -0.7,   -0.4,   -0.4,   -0.6,   -0.7,   -0.4,   -0.6,   -0.5,   -0.7,   -0.4,   -0.7,   -0.5,   -0.5,   -0.6,   -0.8,   -0.7,   -0.8,   -0.7,   -0.7,   -0.7,   -0.9,   -0.6
1999/03/10 03:10,  999.0,  999.0,  999.0,   -0.8,   -0.4,   -0.5,   -0.4,   -0.6,   -0.5,   -0.5,   -0.5,   -0.4,   -0.4,   -0.4,   -0.6,   -0.5,   -0.5,   -0.6,   -0.7,   -0.4,   -0.6,   -0.5,   -0.5,   -0.5,   -0.4,   -0.4,   -0.5,   -0.5,   -0.6,   -0.5,   -0.5,   -0.5,   -0.5,   -0.5,   -0.5,   -0.7,   -0.7,   -0.6,   -0.7,   -0.5,   -0.6,   -0.7,   -0.7,   -0.7,   -0.8,   -0.8,   -0.9,   -0.8,   -1.0,   -0.9,   -1.0,   -0.9
1999/03/10 03:20,  999.0,  999.0,  999.0,   -0.6,   -0.1,   -0.2,   -0.3,   -0.3,   -0.3,   -0.5,   -0.5,   -0.4,   -0.5,   -0.5,   -0.5,   -0.5,   -0.5,   -0.4,   -0.6,   -0.4,   -0.5,   -0.5,   -0.5,   -0.5,   -0.6,   -0.4,   -0.5,   -0.5,   -0.4,   -0.7,   -0.5,   -0.5,   -0.6,   -0.4,   -0.6,   -0.9,   -0.9,   -0.5,   -0.8,   -0.6,   -0.8,   -0.7,   -0.9,   -0.8,   -0.9,   -0.9,   -1.1,   -1.0,   -1.4,   -1.3,   -1.4,   -1.3
1999/03/10 03:30,  999.0,  999.0,  999.0,   -0.6,    0.0,    0.0,   -0.1,   -0.3,   -0.2,   -0.3,   -0.3,   -0.2,   -0.4,   -0.3,   -0.4,   -0.4,   -0.5,   -0.5,   -0.6,   -0.6,   -0.5,   -0.4,   -0.6,   -0.3,   -0.6,   -0.5,   -0.6,   -0.4,   -0.4,   -0.5,   -0.8,   -0.4,   -0.6,   -0.4,   -0.6,  999.0,   -1.5,   -1.1,   -1.3,   -1.4,   -1.6,   -1.7,   -1.7,   -1.7,   -1.7,   -1.7,   -1.7,   -1.7,   -1.7,   -1.7,   -1.7,   -1.6
1999/03/10 03:40,  999.0,  999.0,  999.0,  999.0,   -7.3,   -7.4,  999.0,   -7.6,   -3.8,   -5.1,   -5.1,   -7.7,   -7.6,   -5.2,   -5.3,   -5.2,   -5.3,   -4.2,  999.0,   -4.2,   -4.5,   -4.5,   -4.4,   -4.5,   -4.6,   -4.6,   -5.5,   -4.9,   -6.4,   -5.2,   -5.3,   -4.3,   -4.0,   -0.5,  999.0,  999.0,   -2.2,   -1.8,   -1.8,   -1.9,   -1.8,   -1.9,   -1.9,   -1.9,   -1.9,   -2.0,   -2.0,   -2.0,   -2.0,   -2.0,   -2.0,   -1.9
1999/03/10 03:50,  999.0,  999.0,  999.0,   -7.3,   -7.6,   -7.6,   -7.8,   -7.9,   -7.9,   -8.0,   -7.9,   -8.0,   -8.1,   -8.2,   -8.2,   -8.3,   -8.4,   -8.5,   -8.5,   -8.5,   -8.5,   -8.4,   -8.4,   -8.3,   -8.4,   -8.5,   -8.6,   -8.6,   -8.7,   -8.7,   -8.7,   -8.4,   -7.4,  999.0,  999.0,  999.0,   -2.4,   -1.8,   -1.6,   -1.7,   -1.7,   -1.7,   -1.7,   -1.8,   -1.9,   -1.9,   -2.0,   -2.0,   -1.9,   -1.8,   -1.7,   -1.6
1999/03/10 04:00,  999.0,  999.0,  999.0,   -7.4,   -7.3,   -7.4,   -7.4,   -7.4,   -7.5,   -7.5,   -7.6,   -7.7,   -7.8,   -7.9,   -8.0,   -8.0,   -8.1,   -8.1,   -8.1,   -8.1,   -8.1,   -8.0,   -8.0,   -8.1,   -8.1,   -8.3,   -8.4,   -8.6,   -8.7,   -8.8,   -8.8,   -8.6,   -7.8,  999.0,  999.0,  999.0,  999.0,   -1.8,   -1.7,   -1.7,   -1.8,   -1.8,   -1.8,   -1.8,   -1.8,   -1.9,   -1.9,   -1.6,   -1.4,   -1.4,   -1.3,   -1.0
1999/03/10 04:10,  999.0,  999.0,  999.0,   -7.1,   -7.1,   -7.1,   -7.1,   -7.1,   -7.2,   -7.2,   -7.2,   -7.3,   -7.3,   -7.3,   -7.4,   -7.4,   -7.6,   -7.6,   -7.6,   -7.6,   -7.7,   -7.7,   -7.7,   -7.7,   -7.8,   -7.9,   -8.1,   -8.1,  999.0,  999.0,  999.0,  999.0,  999.0,  999.0,  999.0,  999.0,  999.0,   -1.6,   -1.4,   -1.2,   -1.2,   -1.2,   -1.0,   -0.7,   -0.8,   -0.7,   -0.8,   -0.6,   -0.6,   -0.6,   -0.6,   -0.5
1999/03/10 04:20,  999.0,  999.0,  999.0,   -6.7,   -6.8,   -6.8,   -6.8,   -6.8,   -6.4,   -6.4,   -6.5,   -6.6,   -6.6,   -7.1,   -7.3,   -7.4,   -7.5,   -7.4,   -7.6,   -5.2,   -5.3,   -5.3,   -5.5,   -4.2,   -5.6,   -5.7,   -4.3,   -4.3,   -4.5,   -2.5,   -2.5,   -0.5,   -0.7,   -0.5,   -0.4,  999.0,  999.0,   -0.9,   -0.7,   -0.6,   -0.7,   -0.6,   -0.5,   -0.4,   -0.6,   -0.5,   -0.6,   -0.4,   -0.5,   -0.5,   -0.5,   -0.4
1999/03/10 04:30,  999.0,  999.0,  999.0,   -0.7,   -0.4,   -0.4,   -0.4,   -0.4,   -0.3,   -0.5,   -0.4,   -0.4,   -0.4,   -0.4,   -0.4,   -0.5,   -0.5,   -0.6,   -0.4,   -0.5,   -0.5,   -0.5,   -0.5,   -0.5,   -0.5,   -0.6,   -0.6,   -0.5,   -0.5,   -0.4,   -0.5,   -0.5,   -0.4,   -0.5,   -0.7,   -0.6,   -0.5,   -0.5,   -0.6,   -0.4,   -0.4,   -0.5,   -0.5,   -0.5,   -0.4,   -0.5,   -0.5,   -0.5,   -0.6,   -0.4,   -0.6,   -0.5
1999/03/10 04:40,  999.0,  999.0,  999.0,   -0.7,   -0.3,   -0.2,   -0.3,   -0.3,   -0.3,   -0.5,   -0.5,   -0.5,   -0.4,   -0.5,   -0.5,   -0.5,   -0.4,   -0.4,   -0.5,   -0.5,   -0.5,   -0.5,   -0.5,   -0.5,   -0.4,   -0.5,   -0.5,   -0.5,   -0.5,   -0.4,   -0.5,   -0.5,   -0.5,   -0.4,   -0.5,   -0.5,   -0.4,   -0.5,   -0.6,   -0.5,   -0.4,   -0.5,   -0.5,   -0.5,   -0.4,   -0.4,   -0.6,   -0.5,   -0.4,   -0.4,   -0.5,   -0.5
1999/03/10 04:50,  999.0,  999.0,  999.0,   -0.5,   -0.1,   -0.1,   -0.0,   -0.3,   -0.3,   -0.4,   -0.3,   -0.4,   -0.5,   -0.4,   -0.5,   -0.5,   -0.5,   -0.5,   -0.5,   -0.5,   -0.4,   -0.4,   -0.5,   -0.5,   -0.5,   -0.5,   -0.6,   -0.4,   -0.4,   -0.5,   -0.4,   -0.5,   -0.5,   -0.4,   -0.4,   -0.5,   -0.3,   -0.5,   -0.7,   -0.4,   -0.5,   -0.5,   -0.5,   -0.4,   -0.4,   -0.4,   -0.4,   -0.4,   -0.4,   -0.5,   -0.4,   -0.4
1999/03/10 05:00,  999.0,  999.0,  999.0,   -0.7,   -0.1,   -0.2,   -0.2,   -0.3,   -0.2,   -0.4,   -0.3,   -0.3,   -0.4,   -0.4,   -0.4,   -0.5,   -0.4,   -0.4,   -0.5,   -0.5,   -0.5,   -0.4,   -0.6,   -0.4,   -0.5,   -0.4,   -0.5,   -0.4,   -0.4,   -0.5,   -0.4,   -0.4,   -0.5,   -0.4,   -0.5,   -0.4,   -0.6,   -0.4,   -0.4,   -0.3,   -0.6,   -0.4,   -0.5,   -0.4,   -0.4,   -0.5,   -0.4,   -0.5,   -0.6,   -0.5,   -0.4,   -0.4
1999/03/10 05:10,  999.0,  999.0,  999.0,   -0.7,   -0.2,   -0.3,   -0.3,   -0.4,   -0.4,   -0.5,   -0.4,   -0.4,   -0.5,   -0.5,   -0.7,   -0.4,   -0.5,   -0.5,   -0.4,   -0.5,   -0.4,   -0.5,   -0.5,   -0.4,   -0.5,   -0.5,   -0.4,   -0.4,   -0.5,   -0.5,   -0.6,   -0.4,   -0.6,   -0.4,   -0.5,   -0.5,   -0.6,   -0.5,   -0.6,   -0.5,   -0.5,   -0.5,   -0.5,   -0.4,   -0.5,   -0.5,   -0.4,   -0.4,   -0.4,   -0.4,   -0.5,   -0.5
1999/03/10 05:20,  999.0,  999.0,  999.0,   -0.5,   -0.2,   -0.2,   -0.3,   -0.4,   -0.3,   -0.4,   -0.3,   -0.4,   -0.6,   -0.3,   -0.4,   -0.3,   -0.4,   -0.5,   -0.3,   -0.5,   -0.4,   -0.5,   -0.5,   -0.5,   -0.5,   -0.5,   -0.4,   -0.5,   -0.4,   -0.4,   -0.4,   -0.4,   -0.4,   -0.5,   -0.5,   -0.6,   -0.5,   -0.4,   -0.5,   -0.5,   -0.4,   -0.4,   -0.4,   -0.5,   -0.4,   -0.5,   -0.4,   -0.5,   -0.6,   -0.5,   -0.4,   -0.4
1999/03/10 05:30,  999.0,  999.0,  999.0,   -0.4,   -0.2,   -0.3,   -0.3,   -0.4,   -0.4,   -0.4,   -0.4,   -0.6,   -0.5,   -0.4,   -0.5,   -0.5,   -0.3,   -0.4,   -0.5,   -0.5,   -0.5,   -0.4,   -0.4,   -0.4,   -0.5,   -0.5,   -0.5,   -0.5,   -0.5,   -0.4,   -0.4,   -0.5,   -0.5,   -0.3,   -0.5,   -0.5,   -0.3,   -0.5,   -0.5,   -0.4,   -0.6,   -0.4,   -0.4,   -0.4,   -0.4,   -0.4,   -0.5,   -0.5,   -0.3,   -0.4,   -0.4,   -0.4
1999/03/10 05:40,  999.0,  999.0,  999.0,   -0.6,   -0.3,   -0.3,   -0.5,   -0.5,   -0.4,   -0.5,   -0.5,   -0.4,   -0.6,   -0.5,   -0.5,   -0.5,   -0.5,   -0.5,   -0.7,   -0.5,   -0.6,   -0.6,   -0.5,   -0.4,   -0.5,   -0.5,   -0.6,   -0.4,   -0.5,   -0.4,   -0.6,   -0.3,   -0.5,   -0.5,   -0.5,   -0.4,   -0.5,   -0.5,   -0.6,   -0.4,   -0.5,   -0.5,   -0.5,   -0.4,   -0.4,   -0.4,   -0.5,   -0.5,   -0.5,   -0.5,   -0.6,   -0.4
1999/03/10 05:50,  999.0,  999.0,  999.0,   -0.4,   -0.3,   -0.3,   -0.4,   -0.5,   -0.4,   -0.5,   -0.6,   -0.5,   -0.1,   -0.5,   -0.4,   -0.5,   -0.4,   -0.5,   -0.4,   -0.5,   -0.5,   -0.6,   -0.5,   -0.5,   -0.5,   -0.4,   -0.6,   -0.5,   -0.4,   -0.5,   -0.6,   -0.4,   -0.5,   -0.5,   -0.5,   -0.4,   -0.4,   -0.5,   -0.5,   -0.4,   -0.5,   -0.5,   -0.5,   -0.4,   -0.4,   -0.4,   -0.4,   -0.5,   -0.5,   -0.5,   -0.5,   -0.5
1999/03/10 06:00,  999.0,  999.0,  999.0,   -0.2,   -0.2,   -0.2,   -0.4,   -0.6,   -0.4,   -0.5,   -0.4,   -0.6,   -0.5,   -0.4,   -0.5,   -0.5,   -0.3,   -0.6,   -0.3,   -0.5,   -0.5,   -0.4,   -0.4,   -0.5,   -0.5,   -0.5,   -0.5,   -0.5,   -0.4,   -0.5,   -0.5,   -0.5,   -0.5,   -0.5,   -0.5,   -0.5,   -0.5,   -0.5,   -0.6,   -0.6,   -0.5,   -0.5,   -0.5,   -0.5,   -0.5,   -0.5,   -0.5,   -0.6,   -0.5,   -0.6,   -0.6,   -0.6
1999/03/10 06:10,  999.0,  999.0,  999.0,   -0.3,   -0.2,   -0.3,   -0.2,  999.0,   -0.4,   -0.4,   -0.5,   -0.5,   -0.4,   -0.4,   -0.3,   -0.5,   -0.5,   -0.6,   -0.3,   -0.5,   -0.6,   -0.5,   -0.4,   -0.6,   -0.5,   -0.6,   -0.5,   -0.5,   -0.5,   -0.6,   -0.6,   -0.6,   -0.5,   -0.5,   -0.5,   -0.5,   -0.5,   -0.7,   -0.6,   -0.5,   -0.5,   -0.6,   -0.7,   -0.8,   -0.8,   -0.9,   -0.8,   -0.8,   -0.9,   -0.9,   -1.1,   -0.9
1999/03/10 06:20,  999.0,  999.0,  999.0,   -0.4,  999.0,   -0.2,   -0.4,   -0.5,   -0.3,   -0.3,   -0.5,   -0.5,   -0.5,   -0.3,   -0.3,   -0.3,   -0.4,   -0.4,   -0.6,   -0.4,   -0.4,   -0.4,   -0.6,   -0.4,   -0.5,   -0.5,   -0.5,   -0.4,   -0.5,   -0.5,   -0.5,   -0.4,   -0.4,   -0.5,   -0.6,   -0.5,   -0.7,   -1.0,   -1.1,   -1.0,   -1.2,   -1.2,   -1.4,   -1.0,   -1.4,   -1.5,   -1.6,   -1.4,   -1.6,   -1.3,   -1.4,   -1.0
1999/03/10 06:30,  999.0,  999.0,  999.0,   -0.5,   -0.3,   -0.2,   -0.4,   -0.4,   -0.3,   -0.3,   -0.5,   -0.6,   -0.6,   -0.5,   -0.5,   -0.4,   -0.4,   -0.4,   -0.5,   -0.4,   -0.5,   -0.5,   -0.5,   -0.4,   -0.4,   -0.5,   -0.6,   -0.4,   -0.7,   -0.4,   -0.4,   -0.4,   -0.5,   -0.6,   -0.6,  999.0,  999.0,  999.0,   -1.9,   -1.8,   -1.8,   -1.7,   -1.7,   -1.6,   -1.7,   -1.7,   -1.8,   -1.8,   -1.9,   -1.9,   -1.9,   -1.8
1999/03/10 06:40,  999.0,  999.0,  999.0,   -7.1,   -7.1,   -7.1,   -7.1,   -7.1,   -7.0,   -6.9,   -7.0,   -7.1,   -7.2,   -7.3,   -7.4,   -7.5,   -7.6,   -7.7,   -7.6,   -7.6,   -7.7,   -7.6,   -7.7,   -7.7,   -7.8,   -7.9,   -8.0,   -8.0,   -8.1,   -8.2,   -8.2,   -8.2,   -7.8,   -6.2,  999.0,  999.0,  999.0,   -2.2,   -1.8,   -1.7,   -1.8,   -1.7,   -1.7,   -1.7,   -1.8,   -1.7,   -1.8,   -1.7,   -1.7,   -1.7,   -1.7,   -1.7
1999/03/10 06:50,  999.0,  999.0,  999.0,   -7.5,   -7.5,   -7.5,   -7.6,   -7.6,   -7.6,   -7.6,   -7.7,   -7.7,   -7.8,   -7.8,   -7.9,   -7.9,   -8.0,   -8.0,   -8.1,   -8.1,   -8.1,   -8.2,   -8.2,   -8.3,   -8.4,   -8.4,   -8.5,   -8.6,   -8.7,   -8.7,   -8.7,   -8.6,   -7.8,   -5.9,  999.0,  999.0,  999.0,   -2.3,   -2.0,   -1.9,   -1.9,   -1.8,   -1.8,   -1.7,   -1.7,   -1.7,   -1.8,   -1.8,   -1.8,   -1.8,   -1.7,   -1.2
1999/03/10 07:00,  999.0,  999.0,  999.0,   -7.3,   -7.4,   -7.5,   -7.5,   -7.6,   -7.7,   -7.7,   -7.6,   -7.7,   -7.7,   -7.8,   -7.8,   -7.8,   -7.8,   -7.7,   -7.7,   -7.7,   -7.7,   -7.7,   -7.7,   -7.8,   -7.8,   -8.0,   -8.0,   -8.1,   -8.2,   -8.2,   -8.3,   -8.3,   -7.7,  999.0,  999.0,  999.0,   -2.9,   -2.2,   -1.9,   -1.8,   -1.8,   -1.8,   -1.7,   -1.6,   -1.5,   -1.7,   -1.8,   -1.8,   -1.8,   -1.8,   -1.9,   -1.5
1999/03/10 07:10,  999.0,  999.0,  999.0,   -7.0,   -7.1,   -7.2,   -7.3,   -7.4,   -7.5,   -7.5,   -7.6,   -7.7,   -7.7,   -7.7,   -7.8,   -7.8,   -7.8,   -7.8,   -7.9,   -7.9,   -7.9,   -7.9,   -7.9,   -7.9,   -8.0,   -8.0,   -8.2,   -8.2,   -8.2,   -8.3,   -8.4,   -8.2,   -7.4,   -6.0,  999.0,  999.0,  999.0,   -2.3,   -2.0,   -1.9,   -2.0,   -1.8,   -1.8,   -1.7,   -1.8,   -1.9,   -1.9,   -1.8,   -1.8,   -1.9,   -1.9,   -1.7
1999/03/10 07:20,  999.0,  999.0,  999.0,   -7.2,   -7.3,   -7.3,   -7.4,   -7.5,   -7.7,   -7.6,   -7.6,   -7.7,   -7.8,   -7.8,   -7.8,   -7.8,   -7.8,   -7.9,   -8.0,   -8.0,   -8.1,   -8.0,   -8.1,   -8.2,   -8.2,   -8.3,   -8.4,   -8.4,   -8.5,   -8.5,   -8.6,   -8.4,   -7.7,   -6.5,  999.0,  999.0,  999.0,   -2.4,   -2.0,   -1.9,   -2.0,   -1.9,   -1.8,   -1.7,   -1.8,   -1.8,   -1.8,   -1.9,   -1.9,   -1.9,   -1.9,   -1.7
1999/03/10 07:30,  999.0,  999.0,  999.0,   -7.6,   -7.6,   -7.5,   -7.6,   -7.6,   -7.7,   -7.8,   -7.8,   -7.9,   -8.0,   -8.1,   -8.1,   -8.1,   -8.1,   -8.2,   -8.3,   -8.3,   -8.3,   -8.3,   -8.4,   -8.4,   -8.4,   -8.5,   -8.5,   -8.6,   -8.6,   -8.6,   -8.7,   -8.5,   -7.7,   -6.6,  999.0,  999.0,  999.0,   -2.2,   -1.9,   -1.8,   -1.9,   -1.9,   -1.8,   -1.6,   -1.8,   -1.8,   -1.8,   -1.8,   -1.8,   -1.7,   -1.8,   -1.4
1999/03/10 07:40,  999.0,  999.0,  999.0,   -7.7,   -7.7,   -7.7,   -7.8,   -7.8,   -7.9,   -7.9,   -8.0,   -8.1,   -8.1,   -8.2,   -8.3,   -8.3,   -8.3,   -8.2,   -8.3,   -8.3,   -8.3,   -8.3,   -8.4,   -8.3,   -8.4,   -8.5,   -8.6,   -8.6,   -8.6,   -8.7,   -8.7,   -8.6,   -7.9,   -6.6,  999.0,  999.0,   -2.9,   -2.2,   -1.9,   -1.9,   -2.0,   -1.8,   -1.8,   -1.8,   -1.8,   -1.8,   -1.8,   -1.7,   -1.8,   -1.7,   -1.7,   -1.1
1999/03/10 07:50,  999.0,  999.0,  999.0,   -7.5,   -7.6,   -7.4,   -7.4,   -7.4,   -7.5,   -7.6,   -7.7,   -7.8,   -7.8,   -7.9,   -7.9,   -7.9,   -7.9,   -7.9,   -8.0,   -8.1,   -8.0,   -8.0,   -8.0,   -8.1,   -8.2,   -8.3,   -8.4,   -8.4,   -8.6,   -8.5,   -8.6,   -8.6,   -8.1,   -6.8,  999.0,  999.0,   -2.8,   -2.2,   -1.9,   -1.8,   -1.9,   -1.8,   -1.6,   -1.5,   -1.3,   -1.3,   -1.3,   -1.2,   -1.1,   -1.0,   -1.0,   -0.8
1999/03/10 08:00,  999.0,  999.0,  999.0,   -7.3,   -7.3,   -7.4,   -7.3,   -7.4,   -7.4,   -7.4,   -7.5,   -7.6,   -7.6,   -7.7,   -7.8,   -7.7,   -7.7,   -7.7,   -7.8,   -7.7,   -7.8,   -7.8,   -8.0,   -8.3,   -8.3,   -8.4,   -8.5,   -8.5,   -8.6,   -8.5,   -8.6,   -8.6,   -8.2,  999.0,  999.0,  999.0,  999.0,   -1.8,   -1.1,   -0.7,   -0.9,   -0.8,   -0.8,   -0.7,   -0.7,   -0.7,   -0.7,   -0.7,   -0.6,   -0.7,   -0.7,   -0.5
1999/03/10 08:10,  999.0,  999.0,  999.0,   -6.2,   -6.2,   -6.1,   -6.1,   -6.1,   -6.2,   -6.2,   -6.2,   -6.1,   -6.2,   -6.2,   -6.2,   -6.5,   -6.6,   -6.4,   -6.7,   -6.6,  999.0,   -6.8,  999.0,  999.0,   -0.5,   -0.7,   -0.8,   -0.4,   -0.3,   -0.5,   -0.6,  999.0,   -0.6,   -0.4,   -0.6,   -0.8,   -2.2,   -1.1,   -0.6,   -0.5,   -0.6,   -0.5,   -0.5,   -0.5,   -0.6,   -0.6,   -0.8,   -0.6,   -0.7,   -0.5,   -0.6,   -0.6
1999/03/10 08:20,  999.0,  999.0,  999.0,   -1.0,   -2.6,   -2.5,   -2.5,   -2.5,   -2.4,   -2.5,   -1.7,   -1.8,   -0.4,   -0.5,   -0.5,   -0.5,   -0.6,   -0.5,   -0.6,   -0.5,   -0.5,   -0.5,   -0.6,   -0.5,   -0.6,   -0.5,   -0.5,   -0.5,   -0.5,   -0.5,   -0.6,   -0.6,   -0.6,   -0.6,   -0.6,   -0.5,   -0.8,   -0.6,   -0.6,   -0.6,   -0.6,   -0.5,   -0.5,   -0.5,   -0.7,   -0.6,   -0.6,   -0.5,   -0.5,   -0.6,   -0.6,   -0.5
1999/03/10 08:30,  999.0,  999.0,  999.0,   -0.7,   -0.3,   -0.2,   -0.4,   -0.4,   -0.3,   -0.4,   -0.4,   -0.4,   -0.6,   -0.5,   -0.5,   -0.6,   -0.5,   -0.5,   -0.5,   -0.5,   -0.6,   -0.6,   -0.6,   -0.5,   -0.4,   -0.5,   -0.5,   -0.6,   -0.6,   -0.5,   -0.6,   -0.5,   -0.4,   -0.6,   -0.5,   -0.6,   -0.9,   -0.8,   -0.6,   -0.5,   -0.5,   -0.6,   -0.5,   -0.5,   -0.6,   -0.5,   -0.6,   -0.5,   -0.5,   -0.5,   -0.6,   -0.5
1999/03/10 08:40,  999.0,  999.0,  999.0,   -0.9,   -0.3,   -0.3,   -0.3,   -0.5,   -0.4,   -0.4,   -0.5,   -0.5,   -0.6,   -0.4,   -0.4,   -0.5,   -0.6,   -0.6,   -0.6,   -0.4,   -0.4,   -0.6,   -0.5,   -0.5,   -0.5,   -0.5,   -0.5,   -0.4,   -0.6,   -0.6,   -0.5,   -0.5,   -0.5,   -0.5,   -0.5,   -0.5,   -0.6,   -0.5,   -0.6,   -0.5,   -0.6,   -0.4,   -0.5,   -0.5,   -0.6,   -0.6,   -0.6,   -0.5,   -0.4,   -0.5,   -0.7,   -0.5
1999/03/10 08:50,  999.0,  999.0,  999.0,   -1.0,   -0.4,   -0.4,   -0.3,   -0.4,   -0.3,   -0.4,   -0.4,   -0.5,   -0.6,   -0.5,   -0.7,   -0.5,   -0.4,   -0.5,   -0.6,   -0.5,   -0.4,   -0.5,   -0.6,   -0.4,   -0.5,   -0.5,   -0.5,   -0.6,   -0.5,   -0.5,   -0.5,   -0.6,   -0.5,   -0.5,   -0.4,   -0.6,   -0.6,   -0.6,   -0.7,   -0.5,   -0.5,   -0.5,   -0.6,   -0.5,   -0.5,   -0.5,   -0.6,   -0.5,   -0.4,   -0.6,   -0.7,   -0.5
1999/03/10 09:00,  999.0,  999.0,  999.0,   -0.9,   -0.3,   -0.3,   -0.3,   -0.4,   -0.3,   -0.5,   -0.5,   -0.4,   -0.4,   -0.4,   -0.5,   -0.5,   -0.6,   -0.5,   -0.5,   -0.4,   -0.3,   -0.6,   -0.6,   -0.5,   -0.5,   -0.5,   -0.6,   -0.6,   -0.6,   -0.6,   -0.6,   -0.6,   -0.5,   -0.5,   -0.5,   -0.6,   -0.7,   -0.6,   -0.6,   -0.5,   -0.5,   -0.6,   -0.5,   -0.6,   -0.5,   -0.5,   -0.5,   -0.6,   -0.4,   -0.4,   -0.6,   -0.6
1999/03/10 09:10,  999.0,  999.0,  999.0,   -1.0,   -0.2,   -0.3,   -0.3,   -0.4,   -0.3,   -0.5,   -0.5,   -0.5,   -0.5,   -0.5,   -0.6,   -0.5,   -0.5,   -0.7,   -0.6,   -0.5,   -0.4,   -0.6,   -0.6,   -0.6,   -0.7,   -0.5,   -0.6,   -0.6,   -0.6,   -0.6,   -0.4,   -0.5,   -0.6,   -0.5,   -0.8,   -0.6,   -0.5,   -0.5,   -0.5,   -0.6,   -0.5,   -0.5,   -0.5,   -0.6,   -0.5,   -0.4,   -0.6,   -0.5,   -0.5,   -0.5,   -0.7,   -0.5
1999/03/10 09:20,  999.0,  999.0,  999.0,   -0.9,   -0.3,   -0.2,   -0.3,   -0.4,   -0.3,   -0.6,   -0.5,   -0.5,   -0.5,   -0.5,   -0.5,   -0.5,   -0.5,   -0.5,   -0.6,   -0.4,   -0.5,   -0.6,   -0.5,   -0.5,   -0.5,   -0.5,   -0.5,   -0.5,   -0.5,   -0.5,   -0.5,   -0.5,   -0.5,   -0.5,   -0.5,   -0.5,   -0.6,   -0.5,   -0.5,   -0.5,   -0.6,   -0.6,   -0.6,   -0.5,   -0.5,   -0.5,   -0.7,   -0.5,   -0.5,   -0.6,   -0.4,   -0.6
1999/03/10 09:30,  999.0,  999.0,  999.0,   -0.8,   -0.3,   -0.3,   -0.3,   -0.3,   -0.3,   -0.4,   -0.5,   -0.4,   -0.5,   -0.4,   -0.5,   -0.5,   -0.4,   -0.4,   -0.6,   -0.4,   -0.5,   -0.6,   -0.5,   -0.4,   -0.5,   -0.5,   -0.5,   -0.5,   -0.6,   -0.5,   -0.5,   -0.4,   -0.6,   -0.5,   -0.5,   -0.5,   -0.6,   -0.5,   -0.5,   -0.4,   -0.5,   -0.5,   -0.6,   -0.4,   -0.6,   -0.5,   -0.6,   -0.5,   -0.5,   -0.5,   -0.5,   -0.4
1999/03/10 09:40,  999.0,  999.0,  999.0,   -0.9,   -0.2,   -0.3,   -0.3,   -0.4,   -0.3,   -0.4,   -0.4,   -0.5,   -0.6,   -0.5,   -0.4,   -0.6,   -0.5,   -0.6,   -0.6,   -0.5,   -0.4,   -0.5,   -0.6,   -0.6,   -0.6,   -0.5,   -0.5,   -0.5,   -0.6,   -0.6,   -0.5,   -0.6,   -0.5,   -0.4,   -0.6,   -0.5,   -0.7,   -0.8,   -0.6,   -0.6,   -0.6,   -0.6,   -0.5,   -0.6,   -0.5,   -0.6,   -0.6,   -0.6,   -0.5,   -0.7,   -0.6,   -0.5
1999/03/10 09:50,  999.0,  999.0,  999.0,   -0.6,   -0.2,   -0.2,   -0.3,   -0.4,   -0.4,   -0.5,   -0.5,   -0.5,   -0.5,   -0.4,   -0.5,   -0.4,   -0.6,   -0.6,   -0.6,   -0.5,   -0.5,   -0.6,   -0.6,   -0.5,   -0.5,   -0.6,   -0.7,   -0.4,   -0.6,   -0.5,   -0.6,   -0.6,   -0.6,   -0.5,   -0.6,   -0.6,   -1.3,   -1.1,   -0.8,   -0.6,   -0.7,   -0.7,   -0.7,   -0.5,   -0.6,   -0.5,   -0.5,   -0.5,   -0.6,   -0.5,   -0.7,   -0.5
1999/03/10 10:00,  999.0,  999.0,  999.0,   -0.7,   -0.3,   -0.2,   -0.2,   -0.5,   -0.3,   -0.5,   -0.4,   -0.5,   -0.6,   -0.5,   -0.6,   -0.6,   -0.6,   -0.6,   -0.6,   -0.5,   -0.5,   -0.6,   -0.7,   -0.6,   -0.7,   -0.5,   -0.6,   -0.5,   -0.7,   -0.6,   -0.5,   -0.5,   -0.7,   -0.6,   -0.6,   -0.6,  999.0,   -1.2,   -0.7,   -0.6,   -0.6,   -0.6,   -0.6,   -0.5,   -0.5,   -0.6,   -0.7,   -0.6,   -0.5,   -0.6,   -0.5,   -0.5
1999/03/10 10:10,  999.0,  999.0,  999.0,   -0.9,   -0.5,   -0.3,   -0.4,   -0.5,   -0.4,   -0.6,   -0.5,   -0.6,   -0.6,   -0.5,   -0.6,   -0.5,   -0.6,   -0.6,   -0.6,   -0.5,   -0.5,   -0.6,   -0.6,   -0.6,   -0.6,   -0.6,   -0.6,   -0.6,   -0.5,   -0.5,   -0.6,   -0.6,   -0.7,   -0.6,   -0.7,   -0.6,  999.0,   -1.2,   -0.7,   -0.5,   -0.6,   -0.6,   -0.5,   -0.4,   -0.6,   -0.6,   -0.5,   -0.5,   -0.5,   -0.6,   -0.5,   -0.5
1999/03/10 10:20,  999.0,  999.0,  999.0,   -0.6,   -0.6,   -0.3,   -0.4,   -0.4,   -0.4,   -0.5,   -0.5,   -0.5,   -0.7,   -0.5,   -0.4,   -0.5,   -0.5,   -0.6,   -0.6,   -0.5,   -0.5,   -0.5,   -0.6,   -0.5,   -0.6,   -0.4,   -0.5,   -0.5,   -0.6,   -0.5,   -0.6,   -0.5,   -0.7,   -0.5,   -0.5,   -0.5,   -0.5,   -0.6,   -0.7,   -0.5,   -0.6,   -0.5,   -0.5,   -0.5,   -0.5,   -0.5,   -0.7,   -0.4,   -0.6,   -0.6,   -0.5,   -0.4
1999/03/10 10:30,  999.0,  999.0,  999.0,   -0.8,   -0.2,   -0.2,   -0.3,   -0.4,   -0.3,   -0.5,   -0.4,   -0.5,   -0.5,   -0.5,   -0.4,   -0.5,   -0.5,   -0.6,   -0.5,   -0.5,   -0.5,   -0.5,   -0.6,   -0.6,   -0.5,   -0.5,   -0.5,   -0.6,   -0.6,   -0.5,   -0.5,   -0.6,   -0.5,   -0.4,   -0.6,   -0.6,   -0.5,   -0.6,   -0.6,   -0.6,   -0.5,   -0.5,   -0.5,   -0.5,   -0.5,   -0.6,   -0.7,   -0.6,   -0.6,   -0.6,   -0.6,   -0.5
1999/03/10 10:40,  999.0,  999.0,  999.0,   -0.9,   -0.3,   -0.3,   -0.3,   -0.5,   -0.4,   -0.5,   -0.4,   -0.6,   -0.5,   -0.6,   -0.6,   -0.6,   -0.8,   -0.6,   -0.6,   -0.6,   -0.5,   -0.5,   -0.5,   -0.6,   -0.6,   -0.6,   -0.6,   -0.6,   -0.5,   -0.6,   -0.6,   -0.6,   -0.5,   -0.5,   -0.4,   -0.6,   -0.9,   -0.8,   -0.7,   -0.5,   -0.5,   -0.5,   -0.5,   -0.6,   -0.5,   -0.5,   -0.5,   -0.6,   -0.5,   -0.5,   -0.7,   -0.6
1999/03/10 10:50,  999.0,  999.0,  999.0,   -0.9,   -0.4,   -0.3,   -0.3,   -0.4,   -0.5,   -0.5,   -0.5,   -0.4,   -0.6,   -0.4,   -0.4,   -0.6,   -0.5,   -0.5,   -0.6,   -0.6,   -0.6,   -0.5,   -0.5,   -0.6,   -0.6,   -0.5,   -0.5,   -0.5,   -0.3,   -0.7,   -0.5,   -0.6,   -0.5,   -0.6,   -0.6,   -0.6,   -0.6,   -0.8,   -0.7,   -0.5,   -0.6,   -0.6,   -0.6,   -0.6,   -0.5,   -0.5,   -0.6,   -0.6,   -0.5,   -0.5,   -0.4,   -0.5
1999/03/10 11:00,  999.0,  999.0,  999.0,   -0.7,   -0.1,   -0.1,   -0.2,   -0.2,   -0.2,   -0.3,   -0.3,   -0.5,   -0.5,   -0.5,   -0.5,   -0.4,   -0.3,   -0.5,   -0.4,   -0.4,   -0.3,   -0.5,   -0.5,   -0.6,   -0.3,   -0.4,   -0.6,   -0.5,   -0.5,   -0.4,   -0.4,   -0.6,   -0.4,   -0.4,   -0.4,   -0.4,   -0.8,   -1.1,   -0.7,   -0.4,   -0.5,   -0.4,   -0.5,   -0.5,   -0.4,   -0.5,   -0.4,   -0.3,   -0.6,   -0.6,   -0.4,   -0.4
1999/03/10 11:10,  999.0,  999.0,  999.0,   -0.8,   -0.2,   -0.3,   -0.2,   -0.4,   -0.3,   -0.4,   -0.5,   -0.5,   -0.5,   -0.5,   -0.5,   -0.5,   -0.5,   -0.5,   -0.6,   -0.6,   -0.4,   -0.6,   -0.6,   -0.6,   -0.5,   -0.7,   -0.6,   -0.5,   -0.4,   -0.6,   -0.7,   -0.6,   -0.7,   -0.6,   -0.5,   -0.5,   -0.5,   -0.6,   -0.5,   -0.5,   -0.5,   -0.5,   -0.5,   -0.5,   -0.5,   -0.6,   -0.6,   -0.5,   -0.4,   -0.5,   -0.6,   -0.5
1999/03/10 11:20,  999.0,  999.0,  999.0,   -0.8,   -0.3,   -0.4,   -0.4,   -0.4,   -0.4,   -0.5,   -0.5,   -0.5,   -0.6,   -0.5,   -0.5,   -0.6,   -0.6,   -0.5,   -0.6,   -0.6,   -0.5,   -0.5,   -0.6,   -0.5,   -0.5,   -0.5,   -0.6,   -0.6,   -0.5,   -0.5,   -0.5,   -0.5,   -0.5,   -0.5,   -0.5,   -0.6,   -0.6,   -0.5,   -0.7,   -0.5,   -0.5,   -0.5,   -0.5,   -0.5,   -0.6,   -0.5,   -0.6,   -0.5,   -0.5,   -0.5,   -0.5,   -0.5
1999/03/10 11:30,  999.0,  999.0,  999.0,   -0.9,   -0.5,   -0.5,   -0.5,   -0.5,   -0.4,   -0.4,   -0.5,   -0.6,   -0.6,   -0.5,   -0.5,   -0.6,   -0.5,   -0.4,   -0.5,   -0.6,   -0.4,   -0.5,   -0.6,   -0.5,   -0.6,   -0.6,   -0.6,   -0.6,   -0.5,   -0.6,   -0.5,   -0.5,   -0.5,   -0.5,   -0.5,   -0.5,   -0.5,   -0.6,   -0.6,   -0.6,   -0.6,   -0.6,   -0.5,   -0.5,   -0.6,   -0.5,   -0.6,   -0.5,   -0.6,   -0.6,   -0.5,   -0.5
1999/03/10 11:40,  999.0,  999.0,  999.0,   -0.6,   -0.4,   -0.3,   -0.4,   -0.4,   -0.4,   -0.6,   -0.5,   -0.6,   -0.6,   -0.6,   -0.6,   -0.6,   -0.6,   -0.6,   -0.6,   -0.6,   -0.5,   -0.7,   -0.7,   -0.6,   -0.5,   -0.6,   -0.6,   -0.6,   -0.6,   -0.6,   -0.7,   -0.6,   -0.5,   -0.7,   -0.6,   -0.6,   -0.5,   -0.6,   -0.6,   -0.7,   -0.6,   -0.6,   -0.6,   -0.6,   -0.5,   -0.6,   -0.6,   -0.6,   -0.7,   -0.6,   -0.7,   -0.6
1999/03/10 11:50,  999.0,  999.0,  999.0,   -1.0,   -0.3,   -0.4,   -0.5,   -0.5,   -0.4,   -0.6,   -0.5,   -0.5,   -0.7,   -0.6,   -0.6,   -0.5,   -0.6,   -0.6,   -0.7,   -0.5,   -0.5,   -0.6,   -0.6,   -0.6,   -0.6,   -0.7,   -0.6,   -0.6,   -0.6,   -0.6,   -0.5,   -0.6,   -0.6,   -0.6,   -0.7,   -0.6,   -0.7,   -0.6,   -0.7,   -0.6,   -0.6,   -0.7,   -0.5,   -0.6,   -0.5,   -0.5,   -0.6,   -0.6,   -0.7,   -0.6,   -0.5,   -0.6
1999/03/10 12:00,  999.0,  999.0,  999.0,   -0.9,   -0.3,   -0.4,   -0.5,   -0.5,   -0.5,   -0.5,   -0.5,   -0.6,   -0.5,   -0.5,   -0.6,   -0.6,   -0.6,   -0.6,   -0.6,   -0.5,   -0.5,   -0.6,   -0.6,   -0.6,   -0.6,   -0.6,   -0.7,   -0.6,   -0.6,   -0.6,   -0.7,   -0.6,   -0.5,   -0.6,   -0.6,   -0.7,   -0.6,   -0.5,   -0.8,   -0.6,   -0.7,   -0.6,   -0.6,   -0.7,   -0.6,   -0.6,   -0.7,   -0.6,   -0.6,   -0.6,   -0.5,   -0.6
1999/03/10 12:10,  999.0,  999.0,  999.0,   -0.9,   -0.3,   -0.3,   -0.3,   -0.4,   -0.3,   -0.5,   -0.5,   -0.6,   -0.6,   -0.5,   -0.5,   -0.5,   -0.5,   -0.5,   -0.6,   -0.6,   -0.5,   -0.7,   -0.6,   -0.6,   -0.8,   -0.6,   -0.5,   -0.6,   -0.6,   -0.7,   -0.7,   -0.6,   -0.5,   -0.6,   -0.7,   -0.7,   -0.6,   -0.7,   -0.7,   -0.6,   -0.6,   -0.6,   -0.6,   -0.6,   -0.5,   -0.6,   -0.6,   -0.6,   -0.4,   -0.5,   -0.6,   -0.6
1999/03/10 12:20,  999.0,  999.0,  999.0,   -0.9,   -0.4,   -0.5,   -0.5,   -0.4,   -0.4,   -0.5,   -0.5,   -0.5,   -0.7,   -0.6,   -0.6,   -0.5,   -0.5,   -0.5,   -0.7,   -0.6,   -0.5,   -0.6,   -0.5,   -0.6,   -0.6,   -0.7,   -0.6,   -0.5,   -0.6,   -0.5,   -0.6,   -0.6,   -0.5,   -0.6,   -0.6,   -0.5,   -0.7,   -0.8,   -0.6,   -0.5,   -0.6,   -0.6,   -0.5,   -0.4,   -0.4,   -0.7,   -0.5,   -0.5,   -0.4,   -0.6,   -0.6,   -0.6
1999/03/10 12:30,  999.0,  999.0,  999.0,   -1.0,   -0.3,   -0.3,   -0.4,   -0.4,   -0.4,   -0.4,   -0.5,   -0.5,   -0.6,   -0.6,   -0.5,   -0.5,   -0.5,   -0.6,   -0.5,   -0.4,   -0.4,   -0.6,   -0.6,   -0.5,   -0.5,   -0.5,   -0.6,   -0.5,   -0.6,   -0.6,   -0.6,   -0.5,   -0.6,   -0.5,   -0.6,   -0.5,   -0.6,   -0.7,   -0.7,   -0.4,   -0.5,   -0.6,   -0.6,   -0.5,   -0.5,   -0.5,   -0.6,   -0.4,   -0.5,   -0.6,   -0.5,   -0.4
1999/03/10 12:40,  999.0,  999.0,  999.0,   -0.7,   -0.4,   -0.4,   -0.4,   -0.4,   -0.4,   -0.5,   -0.5,   -0.6,   -0.6,   -0.5,   -0.5,   -0.4,   -0.6,   -0.6,   -0.6,   -0.6,   -0.4,   -0.6,   -0.5,   -0.6,   -0.4,   -0.5,   -0.7,   -0.7,   -0.5,   -0.5,   -0.6,   -0.5,   -0.5,   -0.5,   -0.6,   -0.5,   -0.6,   -0.7,   -0.8,   -0.5,   -0.6,   -0.4,   -0.6,   -0.4,   -0.6,   -0.6,   -0.5,   -0.5,   -0.5,   -0.5,   -0.5,   -0.5
1999/03/10 12:50,  999.0,  999.0,  999.0,   -0.9,   -0.4,   -0.4,   -0.5,   -0.5,   -0.5,   -0.4,   -0.5,   -0.6,   -0.7,   -0.5,   -0.7,   -0.5,   -0.5,   -0.5,   -0.6,   -0.5,   -0.5,   -0.5,   -0.6,   -0.5,   -0.5,   -0.5,   -0.5,   -0.6,   -0.6,   -0.6,   -0.6,   -0.6,   -0.5,   -0.5,   -0.5,   -0.5,   -0.6,   -0.6,   -0.6,   -0.5,   -0.6,   -0.5,   -0.5,   -0.5,   -0.5,   -0.7,   -0.5,   -0.5,   -0.6,   -0.5,   -0.5,   -0.5
1999/03/10 13:00,  999.0,  999.0,  999.0,   -1.0,   -0.4,   -0.3,   -0.4,   -0.5,   -0.4,   -0.4,   -0.5,   -0.6,   -0.5,   -0.5,   -0.5,   -0.4,   -0.5,   -0.5,   -0.5,   -0.6,   -0.6,   -0.5,   -0.4,   -0.5,   -0.5,   -0.6,   -0.5,   -0.5,   -0.6,   -0.6,   -0.5,   -0.5,   -0.5,   -0.6,   -0.6,   -0.5,   -0.5,   -0.6,   -0.6,   -0.5,   -0.6,   -0.5,   -0.6,   -0.5,   -0.6,   -0.5,   -0.6,   -0.5,   -0.6,   -0.5,   -0.6,   -0.6
1999/03/10 13:10,  999.0,  999.0,  999.0,   -0.9,   -0.4,   -0.4,   -0.5,   -0.5,   -0.4,   -0.4,   -0.5,   -0.6,   -0.5,   -0.5,   -0.5,   -0.5,   -0.5,   -0.5,   -0.6,   -0.5,   -0.6,   -0.7,   -0.6,   -0.5,   -0.5,   -0.5,   -0.5,   -0.4,   -0.6,   -0.6,   -0.5,   -0.4,   -0.5,   -0.5,   -0.7,   -0.5,   -0.6,   -0.5,   -0.6,   -0.5,   -0.5,   -0.5,   -0.5,   -0.5,   -0.4,   -0.4,   -0.6,   -0.5,   -0.5,   -0.5,   -0.6,   -0.5
1999/03/10 13:20,  999.0,  999.0,  999.0,   -0.7,   -0.4,   -0.3,   -0.4,   -0.4,   -0.4,   -0.4,   -0.4,   -0.5,   -0.5,   -0.5,   -0.5,   -0.6,   -0.5,   -0.5,   -0.5,   -0.6,   -0.5,   -0.5,   -0.6,   -0.5,   -0.5,   -0.5,   -0.5,   -0.5,   -0.5,   -0.6,   -0.6,   -0.6,   -0.4,   -0.6,   -0.6,   -0.5,   -0.5,   -0.5,   -0.5,   -0.5,   -0.4,   -0.5,   -0.6,   -0.5,   -0.5,   -0.6,   -0.6,   -0.4,   -0.4,   -0.6,   -0.6,   -0.5
1999/03/10 13:30,  999.0,  999.0,  999.0,   -1.0,   -0.4,   -0.3,   -0.3,   -0.4,   -0.4,   -0.5,   -0.5,   -0.5,   -0.5,   -0.5,   -0.6,   -0.5,   -0.6,   -0.5,   -0.4,   -0.5,   -0.5,   -0.5,   -0.5,   -0.6,   -0.4,   -0.5,   -0.6,   -0.6,   -0.4,   -0.5,   -0.6,   -0.6,   -0.5,   -0.6,   -0.6,   -0.6,   -0.5,   -0.6,   -0.6,   -0.6,   -0.6,   -0.6,   -0.5,   -0.5,   -0.6,   -0.6,   -0.5,   -0.5,   -0.4,   -0.5,   -0.5,   -0.6
1999/03/10 13:40,  999.0,  999.0,  999.0,   -0.9,   -0.2,   -0.3,   -0.3,   -0.4,   -0.3,   -0.4,   -0.5,   -0.6,   -0.6,   -0.5,   -0.5,   -0.5,   -0.5,   -0.6,   -0.5,   -0.6,   -0.5,   -0.5,   -0.6,   -0.4,   -0.5,   -0.6,   -0.6,   -0.5,   -0.6,   -0.6,   -0.5,   -0.4,   -0.5,   -0.6,   -0.5,   -0.5,   -0.6,   -0.6,   -0.6,   -0.5,   -0.6,   -0.6,   -0.6,   -0.5,   -0.6,   -0.5,   -0.6,   -0.6,   -0.6,   -0.5,   -0.5,   -0.5
1999/03/10 13:50,  999.0,  999.0,  999.0,   -0.9,   -0.3,   -0.2,   -0.4,   -0.5,   -0.3,   -0.5,   -0.5,   -0.5,   -0.8,   -0.5,   -0.6,   -0.5,   -0.5,   -0.5,   -0.5,   -0.5,   -0.5,   -0.6,   -0.6,   -0.6,   -0.5,   -0.6,   -0.5,   -0.5,   -0.6,   -0.6,   -0.6,   -0.6,   -0.6,   -0.6,   -0.5,   -0.6,   -0.6,   -0.6,   -0.6,   -0.5,   -0.6,   -0.5,   -0.5,   -0.5,   -0.5,   -0.6,   -0.6,   -0.5,   -0.5,   -0.5,   -0.6,   -0.5
1999/03/10 14:00,  999.0,  999.0,  999.0,   -0.9,   -0.4,   -0.4,   -0.4,   -0.4,   -0.5,   -0.5,   -0.5,   -0.4,   -0.5,   -0.5,   -0.6,   -0.5,   -0.6,   -0.5,   -0.6,   -0.6,   -0.6,   -0.6,   -0.6,   -0.5,   -0.5,   -0.6,   -0.7,   -0.6,   -0.5,   -0.6,   -0.5,   -0.5,   -0.5,   -0.6,   -0.6,   -0.5,   -0.5,   -0.5,   -0.6,   -0.6,   -0.6,   -0.6,   -0.7,   -0.5,   -0.6,   -0.5,   -0.7,   -0.5,   -0.5,   -0.4,   -0.6,   -0.6
1999/03/10 14:10,  999.0,  999.0,  999.0,   -0.8,   -0.3,   -0.2,   -0.3,   -0.4,   -0.3,   -0.5,   -0.5,   -0.6,   -0.6,   -0.6,   -0.6,   -0.4,   -0.5,   -0.6,   -0.6,   -0.5,   -0.5,   -0.6,   -0.7,   -0.6,   -0.6,   -0.6,   -0.6,   -0.6,   -0.6,   -0.6,   -0.7,   -0.6,   -0.5,   -0.6,   -0.6,   -0.6,   -0.6,   -0.5,   -0.6,   -0.5,   -0.6,   -0.6,   -0.6,   -0.5,   -0.5,   -0.6,   -0.7,   -0.5,   -0.6,   -0.6,   -0.5,   -0.5
1999/03/10 14:20,  999.0,  999.0,  999.0,   -0.9,   -0.4,   -0.4,   -0.5,   -0.4,   -0.4,   -0.5,   -0.6,   -0.5,   -0.6,   -0.6,   -0.6,   -0.6,   -0.6,   -0.5,   -0.5,   -0.6,   -0.6,   -0.5,   -0.6,   -0.6,   -0.6,   -0.6,   -0.6,   -0.6,   -0.5,   -0.7,   -0.5,   -0.6,   -0.6,   -0.6,   -0.6,   -0.6,   -0.8,   -0.6,   -0.7,   -0.6,   -0.7,   -0.7,   -0.6,   -0.6,   -0.5,   -0.6,   -0.5,   -0.6,   -0.6,   -0.5,   -0.5,   -0.6
1999/03/10 14:30,  999.0,  999.0,  999.0,   -0.8,   -0.3,   -0.3,   -0.5,   -0.5,   -0.4,   -0.5,   -0.6,   -0.6,   -0.7,   -0.5,   -0.5,   -0.6,   -0.5,   -0.7,   -0.6,   -0.4,   -0.6,   -0.5,   -0.6,   -0.6,   -0.4,   -0.6,   -0.6,   -0.5,   -0.5,   -0.6,   -0.6,   -0.6,   -0.5,   -0.6,   -0.6,   -0.5,   -0.5,   -0.6,   -0.7,   -0.6,   -0.6,   -0.7,   -0.7,   -0.6,   -0.6,   -0.6,   -0.6,   -0.6,   -0.6,   -0.6,   -0.6,   -0.5
1999/03/10 14:40,  999.0,  999.0,  999.0,   -0.8,   -0.4,   -0.4,   -0.4,   -0.5,   -0.5,   -0.6,   -0.6,   -0.6,   -0.7,   -0.5,   -0.6,   -0.6,   -0.5,   -0.7,   -0.6,   -0.6,   -0.5,   -0.6,   -0.6,   -0.6,   -0.7,   -0.6,   -0.7,   -0.6,   -0.6,   -0.6,   -0.6,   -0.6,   -0.5,   -0.6,   -0.5,   -0.6,   -0.6,   -0.6,   -0.5,   -0.5,   -0.6,   -0.6,   -0.6,   -0.5,   -0.6,   -0.5,   -0.6,   -0.6,   -0.5,   -0.6,   -0.5,   -0.6
1999/03/10 14:50,  999.0,  999.0,  999.0,   -1.0,   -0.4,   -0.3,   -0.4,   -0.5,   -0.5,   -0.4,   -0.4,   -0.6,   -0.6,   -0.6,   -0.6,   -0.5,   -0.5,   -0.6,   -0.5,   -0.6,   -0.5,   -0.6,   -0.6,   -0.6,   -0.5,   -0.6,   -0.5,   -0.5,   -0.6,   -0.7,   -0.5,   -0.5,   -0.7,   -0.5,   -0.5,   -0.5,   -0.6,   -0.6,   -0.7,   -0.6,   -0.5,   -0.6,   -0.5,   -0.5,   -0.5,   -0.7,   -0.5,   -0.5,   -0.6,   -0.6,   -0.6,   -0.6
1999/03/10 15:00,  999.0,  999.0,  999.0,   -0.8,   -0.5,   -0.4,   -0.5,   -0.4,   -0.5,   -0.5,   -0.6,   -0.5,   -0.7,   -0.6,   -0.6,   -0.5,   -0.5,   -0.6,   -0.6,   -0.6,   -0.6,   -0.5,   -0.7,   -0.5,   -0.6,   -0.6,   -0.8,   -0.5,   -0.7,   -0.6,   -0.6,   -0.5,   -0.6,   -0.6,   -0.6,   -0.5,   -0.7,   -0.5,   -0.6,   -0.5,   -0.7,   -0.5,   -0.5,   -0.5,   -0.6,   -0.6,   -0.5,   -0.5,   -0.6,   -0.6,   -0.6,   -0.6
1999/03/10 15:10,  999.0,  999.0,  999.0,   -0.7,   -0.3,   -0.3,   -0.4,   -0.4,   -0.5,   -0.5,   -0.6,   -0.4,   -0.5,   -0.5,   -0.5,   -0.5,   -0.5,   -0.5,   -0.6,   -0.5,   -0.6,   -0.5,   -0.6,   -0.5,   -0.5,   -0.6,   -0.6,   -0.5,   -0.5,   -0.6,   -0.6,   -0.6,   -0.7,   -0.6,   -0.6,   -0.5,   -0.6,   -0.5,   -0.5,   -0.5,   -0.7,   -0.5,   -0.6,   -0.5,   -0.7,   -0.7,   -0.7,   -0.5,   -0.5,   -0.5,   -0.6,   -0.4
1999/03/10 15:20,  999.0,  999.0,  999.0,   -1.0,   -0.4,   -0.4,   -0.4,   -0.5,   -0.4,   -0.5,   -0.5,   -0.5,   -0.7,   -0.6,   -0.6,   -0.5,   -0.6,   -0.6,   -0.7,   -0.5,   -0.5,   -0.6,   -0.6,   -0.6,   -0.6,   -0.6,   -0.6,   -0.4,   -0.6,   -0.6,   -0.6,   -0.5,   -0.6,   -0.5,   -0.7,   -0.5,   -0.5,   -0.6,   -0.5,   -0.5,   -0.6,   -0.6,   -0.6,   -0.5,   -0.6,   -0.6,   -0.6,   -0.5,   -0.6,   -0.6,   -0.8,   -0.5
1999/03/10 15:30,  999.0,  999.0,  999.0,   -0.7,   -0.3,   -0.3,   -0.4,   -0.5,   -0.3,   -0.5,   -0.5,   -0.6,   -0.6,   -0.6,   -0.5,   -0.6,   -0.7,   -0.6,   -0.6,   -0.6,   -0.6,   -0.6,   -0.6,   -0.6,   -0.6,   -0.6,   -0.5,   -0.5,   -0.5,   -0.6,   -0.5,   -0.5,   -0.6,   -0.6,   -0.5,   -0.5,   -0.6,   -0.6,   -0.7,   -0.6,   -0.6,   -0.6,   -0.6,   -0.6,   -0.6,   -0.5,   -0.7,   -0.6,   -0.7,   -0.6,   -0.5,   -0.6
1999/03/10 15:40,  999.0,  999.0,  999.0,   -0.9,   -0.4,   -0.3,   -0.5,   -0.3,   -0.4,   -0.5,   -0.5,   -0.4,   -0.8,   -0.5,   -0.7,   -0.5,   -0.5,   -0.5,   -0.6,   -0.5,   -0.5,   -0.6,   -0.6,   -0.5,   -0.6,   -0.5,   -0.6,   -0.5,   -0.5,   -0.5,   -0.6,   -0.5,   -0.6,   -0.5,   -0.5,   -0.5,   -0.6,   -0.5,   -0.5,   -0.5,   -0.7,   -0.6,   -0.6,   -0.5,   -0.5,   -0.6,   -0.6,   -0.5,   -0.6,   -0.6,   -0.5,   -0.5
1999/03/10 15:50,  999.0,  999.0,  999.0,   -0.8,   -0.4,   -0.4,   -0.4,   -0.5,   -0.5,   -0.5,   -0.5,   -0.6,   -0.7,   -0.6,   -0.4,   -0.5,   -0.5,   -0.7,   -0.5,   -0.6,   -0.7,   -0.6,   -0.6,   -0.6,   -0.6,   -0.5,   -0.6,   -0.6,   -0.6,   -0.7,   -0.6,   -0.6,   -0.6,   -0.5,   -0.6,   -0.6,   -0.6,   -0.5,   -0.6,   -0.6,   -0.6,   -0.5,   -0.5,   -0.6,   -0.5,   -0.6,   -0.6,   -0.6,   -0.6,   -0.6,   -0.5,   -0.5
1999/03/10 16:00,  999.0,  999.0,  999.0,   -0.8,   -0.4,   -0.4,   -0.4,   -0.5,   -0.4,   -0.5,   -0.5,   -0.4,   -0.6,   -0.5,   -0.5,   -0.5,   -0.4,   -0.6,   -0.5,   -0.5,   -0.6,   -0.6,   -0.5,   -0.6,   -0.5,   -0.6,   -0.5,   -0.5,   -0.3,   -0.5,   -0.5,   -0.4,   -0.5,   -0.5,   -0.4,   -0.5,   -0.5,   -0.6,   -0.6,   -0.4,   -0.6,   -0.6,   -0.5,   -0.5,   -0.4,   -0.6,   -0.5,   -0.5,   -0.3,   -0.5,   -0.5,   -0.5
1999/03/10 16:10,  999.0,  999.0,  999.0,   -1.0,   -0.4,   -0.3,   -0.4,   -0.4,   -0.5,   -0.6,   -0.5,   -0.6,   -0.5,   -0.6,   -0.5,   -0.6,   -0.5,   -0.6,   -0.6,   -0.6,   -0.6,   -0.6,   -0.6,   -0.5,   -0.5,   -0.6,   -0.5,   -0.7,   -0.6,   -0.6,   -0.6,   -0.6,   -0.6,   -0.6,   -0.6,   -0.6,   -0.5,   -0.5,   -0.6,   -0.6,   -0.7,   -0.6,   -0.7,   -0.6,   -0.5,   -0.6,   -0.7,   -0.5,   -0.6,   -0.6,   -0.6,   -0.5
1999/03/10 16:20,  999.0,  999.0,  999.0,   -1.1,   -0.3,   -0.3,   -0.4,   -0.4,   -0.4,   -0.5,   -0.5,   -0.6,   -0.6,   -0.5,   -0.5,   -0.5,   -0.4,   -0.6,   -0.5,   -0.6,   -0.4,   -0.5,   -0.6,   -0.6,   -0.5,   -0.6,   -0.5,   -0.5,   -0.5,   -0.6,   -0.6,   -0.5,   -0.5,   -0.6,   -0.5,   -0.6,   -0.5,   -0.6,   -0.6,   -0.5,   -0.5,   -0.5,   -0.5,   -0.6,   -0.5,   -0.3,   -0.7,   -0.6,   -0.5,   -0.5,   -0.6,   -0.6
1999/03/10 16:30,  999.0,  999.0,  999.0,   -1.0,   -0.3,   -0.3,   -0.4,   -0.5,   -0.4,   -0.4,   -0.5,   -0.6,   -0.5,   -0.5,   -0.5,   -0.6,   -0.5,   -0.6,   -0.6,   -0.5,   -0.5,   -0.7,   -0.6,   -0.6,   -0.5,   -0.5,   -0.6,   -0.7,   -0.5,   -0.6,   -0.6,   -0.6,   -0.6,   -0.6,   -0.4,   -0.6,   -0.5,   -0.6,   -0.6,   -0.6,   -0.6,   -0.6,   -0.6,   -0.6,   -0.6,   -0.6,   -0.7,   -0.6,   -0.6,   -0.6,   -0.5,   -0.6
1999/03/10 16:40,  999.0,  999.0,  999.0,   -0.9,   -0.3,   -0.3,   -0.2,   -0.4,   -0.3,   -0.4,   -0.4,   -0.5,   -0.6,   -0.5,   -0.4,   -0.5,   -0.5,   -0.5,   -0.6,   -0.6,   -0.4,   -0.5,   -0.6,   -0.5,   -0.6,   -0.6,   -0.4,   -0.5,   -0.6,   -0.5,   -0.6,   -0.6,   -0.5,   -0.5,   -0.6,   -0.5,   -0.5,   -0.5,   -0.5,   -0.5,   -0.6,   -0.5,   -0.6,   -0.4,   -0.6,   -0.5,   -0.7,   -0.6,   -0.5,   -0.4,   -0.6,   -0.5
1999/03/10 16:50,  999.0,  999.0,  999.0,   -1.0,   -0.3,   -0.4,   -0.4,   -0.5,   -0.4,   -0.5,   -0.5,   -0.4,   -0.5,   -0.5,   -0.5,   -0.5,   -0.5,   -0.5,   -0.5,   -0.5,   -0.5,   -0.5,   -0.4,   -0.6,   -0.6,   -0.5,   -0.5,   -0.6,   -0.5,   -0.5,   -0.5,   -0.5,   -0.5,   -0.5,   -0.6,   -0.5,   -0.6,   -0.5,   -0.5,   -0.5,   -0.6,   -0.5,   -0.7,   -0.5,   -0.6,   -0.5,   -0.5,   -0.5,   -0.6,   -0.5,   -0.4,   -0.5
1999/03/10 17:00,  999.0,  999.0,  999.0,   -0.9,   -0.1,   -0.3,   -0.5,   -0.4,   -0.3,   -0.5,   -0.5,   -0.5,   -0.5,   -0.5,   -0.5,   -0.6,   -0.5,   -0.6,   -0.5,   -0.5,   -0.5,   -0.5,   -0.6,   -0.4,   -0.6,   -0.6,   -0.5,   -0.6,   -0.6,   -0.6,   -0.5,   -0.6,   -0.5,   -0.5,   -0.6,   -0.5,   -0.5,   -0.5,   -0.7,   -0.6,   -0.5,   -0.5,   -0.5,   -0.5,   -0.5,   -0.5,   -0.5,   -0.5,   -0.5,   -0.5,   -0.6,   -0.5
1999/03/10 17:10,  999.0,  999.0,  999.0,   -0.9,   -0.3,   -0.3,   -0.4,   -0.4,   -0.4,   -0.5,   -0.5,   -0.6,   -0.6,   -0.5,   -0.5,   -0.5,   -0.4,   -0.5,   -0.5,   -0.6,   -0.4,   -0.5,   -0.6,   -0.5,   -0.6,   -0.5,   -0.5,   -0.5,   -0.5,   -0.5,   -0.5,   -0.5,   -0.5,   -0.5,   -0.5,   -0.5,   -0.5,   -0.5,   -0.7,   -0.4,   -0.6,   -0.5,   -0.6,   -0.5,   -0.6,   -0.5,   -0.7,   -0.6,   -0.5,   -0.5,   -0.5,   -0.5
1999/03/10 17:20,  999.0,  999.0,  999.0,   -0.8,   -0.2,   -0.3,   -0.4,   -0.4,   -0.4,   -0.5,   -0.5,   -0.5,   -0.7,   -0.5,   -0.6,   -0.6,   -0.5,   -0.6,   -0.4,   -0.6,   -0.6,   -0.5,   -0.6,   -0.6,   -0.6,   -0.5,   -0.5,   -0.6,   -0.5,   -0.6,   -0.5,   -0.5,   -0.5,   -0.6,   -0.7,   -0.5,   -0.6,   -0.7,   -0.6,   -0.6,   -0.7,   -0.6,   -0.4,   -0.5,   -0.6,   -0.6,   -0.5,   -0.5,   -0.6,   -0.6,   -0.5,   -0.5
1999/03/10 17:30,  999.0,  999.0,  999.0,   -1.0,   -0.3,   -0.3,   -0.4,   -0.4,   -0.4,   -0.5,   -0.6,   -0.5,   -0.7,   -0.5,   -0.5,   -0.4,   -0.7,   -0.6,   -0.5,   -0.5,   -0.5,   -0.7,   -0.6,   -0.5,   -0.6,   -0.6,   -0.6,   -0.5,   -0.5,   -0.5,   -0.5,   -0.5,   -0.6,   -0.6,   -0.5,   -0.5,   -0.5,   -0.6,   -0.6,   -0.6,   -0.6,   -0.5,   -0.5,   -0.5,   -0.5,   -0.6,   -0.5,   -0.5,   -0.6,   -0.5,   -0.7,   -0.6
1999/03/10 17:40,  999.0,  999.0,  999.0,   -0.9,   -0.4,   -0.3,   -0.3,   -0.3,   -0.5,   -0.5,   -0.5,   -0.5,   -0.6,   -0.6,   -0.6,   -0.6,   -0.4,   -0.5,   -0.5,   -0.5,   -0.5,   -0.5,   -0.6,   -0.5,   -0.4,   -0.6,   -0.5,   -0.5,   -0.5,   -0.5,   -0.4,   -0.5,   -0.5,   -0.6,   -0.4,   -0.5,   -0.4,   -0.5,   -0.7,   -0.6,   -0.5,   -0.5,   -0.5,   -0.6,   -0.5,   -0.7,   -0.6,   -0.5,   -0.5,   -0.6,   -0.5,   -0.5
1999/03/10 17:50,  999.0,  999.0,  999.0,   -1.0,   -0.3,   -0.3,   -0.4,   -0.4,   -0.4,   -0.4,   -0.4,   -0.5,   -0.4,   -0.5,   -0.5,   -0.4,   -0.4,   -0.5,   -0.5,   -0.4,   -0.3,   -0.5,   -0.6,   -0.5,   -0.5,   -0.6,   -0.5,   -0.6,   -0.4,   -0.6,   -0.6,   -0.6,   -0.6,   -0.5,   -0.5,   -0.6,   -0.5,   -0.5,   -0.4,   -0.5,   -0.6,   -0.5,   -0.5,   -0.5,   -0.5,   -0.5,   -0.5,   -0.6,   -0.6,   -0.5,   -0.5,   -0.5
1999/03/10 18:00,  999.0,  999.0,  999.0,   -1.1,   -0.5,   -0.4,   -0.4,   -0.4,   -0.4,   -0.4,   -0.5,   -0.3,   -0.4,   -0.5,   -0.5,   -0.5,   -0.5,   -0.5,   -0.5,   -0.5,   -0.5,   -0.6,   -0.5,   -0.5,   -0.5,   -0.5,   -0.6,   -0.5,   -0.5,   -0.6,   -0.6,   -0.6,   -0.5,   -0.5,   -0.5,   -0.5,   -0.6,   -0.5,   -0.5,   -0.4,   -0.7,   -0.4,   -0.6,   -0.5,   -0.5,   -0.5,   -0.6,   -0.5,   -0.6,   -0.4,   -0.6,   -0.5
1999/03/10 18:10,  999.0,  999.0,  999.0,   -0.8,   -0.3,   -0.4,   -0.4,   -0.4,   -0.3,   -0.5,   -0.4,   -0.5,   -0.5,   -0.5,   -0.4,   -0.5,   -0.6,   -0.6,   -0.7,   -0.6,   -0.6,   -0.6,   -0.6,   -0.5,   -0.6,   -0.4,   -0.6,   -0.6,   -0.5,   -0.6,   -0.6,   -0.6,   -0.5,   -0.6,   -0.6,   -0.6,   -0.5,   -0.5,   -0.5,   -0.5,   -0.6,   -0.6,   -0.5,   -0.5,   -0.4,   -0.6,   -0.6,   -0.5,   -0.5,   -0.5,   -0.7,   -0.5
1999/03/10 18:20,  999.0,  999.0,  999.0,   -0.6,   -0.3,   -0.3,   -0.4,   -0.5,   -0.3,   -0.6,   -0.6,   -0.6,   -0.5,   -0.5,   -0.4,   -0.5,   -0.5,   -0.5,   -0.5,   -0.5,   -0.6,   -0.6,   -0.6,   -0.5,   -0.5,   -0.6,   -0.5,   -0.6,   -0.5,   -0.5,   -0.5,   -0.5,   -0.6,   -0.6,   -0.5,   -0.5,   -0.6,   -0.5,   -0.5,   -0.5,   -0.5,   -0.6,   -0.5,   -0.5,   -0.5,   -0.5,   -0.6,   -0.6,   -0.5,   -0.6,   -0.5,   -0.5
1999/03/10 18:30,  999.0,  999.0,  999.0,   -1.0,   -0.4,   -0.4,   -0.4,   -0.5,   -0.4,   -0.6,   -0.4,   -0.4,   -0.4,   -0.5,   -0.6,   -0.4,   -0.5,   -0.5,   -0.6,   -0.4,   -0.5,   -0.5,   -0.5,   -0.5,   -0.5,   -0.4,   -0.6,   -0.5,   -0.4,   -0.5,   -0.6,   -0.4,   -0.5,   -0.5,   -0.5,   -0.5,   -0.6,   -0.5,   -0.5,   -0.5,   -0.6,   -0.5,   -0.6,   -0.5,   -0.5,   -0.5,   -0.6,   -0.6,   -0.6,   -0.6,   -0.6,   -0.4
1999/03/10 18:40,  999.0,  999.0,  999.0,  999.0,   -0.3,   -0.2,   -0.3,   -0.4,   -0.5,   -0.6,   -0.4,   -0.5,   -0.5,   -0.4,   -0.4,   -0.5,   -0.5,   -0.6,   -0.6,   -0.5,   -0.3,   -0.5,   -0.5,   -0.5,   -0.6,   -0.6,   -0.5,   -0.5,   -0.3,   -0.6,   -0.6,   -0.5,   -0.6,   -0.4,   -0.5,   -0.5,   -0.6,   -0.6,   -0.8,   -0.5,   -0.7,   -0.5,   -0.4,   -0.5,   -0.4,   -0.6,   -0.5,   -0.5,   -0.5,   -0.4,   -0.6,   -0.5
1999/03/10 18:50,  999.0,  999.0,  999.0,   -1.1,   -0.5,   -0.3,   -0.5,   -0.5,   -0.4,   -0.4,   -0.5,   -0.4,   -0.6,   -0.6,   -0.5,   -0.7,   -0.7,   -0.7,   -0.5,   -0.5,   -0.6,   -0.6,   -0.5,   -0.6,   -0.5,   -0.6,   -0.7,   -0.5,   -0.5,   -0.6,   -0.4,   -0.5,   -0.5,   -0.7,   -0.6,   -0.7,   -0.5,   -0.4,   -0.7,   -0.5,   -0.5,   -0.8,   -0.4,   -0.6,   -0.7,   -0.6,   -0.6,   -0.6,   -0.8,   -0.7,   -0.6,   -0.7
1999/03/10 19:00,  999.0,  999.0,  999.0,  999.0,   -0.4,   -0.4,   -0.5,   -0.5,   -0.5,   -0.6,   -0.6,   -0.5,   -0.5,   -0.5,   -0.5,   -0.5,   -0.5,   -0.6,   -0.4,   -0.5,   -0.5,   -0.6,   -0.6,   -0.6,   -0.7,   -0.6,   -0.6,   -0.6,   -0.6,   -0.7,   -0.6,   -0.5,   -0.6,   -0.6,   -0.7,   -0.5,   -0.6,   -0.5,   -0.6,   -0.6,   -0.7,   -0.7,   -0.7,   -0.6,   -0.7,   -0.6,   -0.4,   -0.5,   -0.6,   -0.6,   -0.6,   -0.6
1999/03/10 19:10,  999.0,  999.0,  999.0,   -0.8,   -0.4,   -0.2,   -0.3,   -0.4,   -0.4,   -0.4,   -0.8,   -0.5,   -0.4,   -0.5,   -0.4,   -0.4,   -0.5,   -0.6,   -0.6,   -0.5,   -0.6,   -0.6,   -0.6,   -0.5,   -0.6,   -0.5,   -0.5,   -0.5,   -0.6,   -0.6,   -0.6,   -0.5,   -0.5,   -0.6,   -0.6,   -0.6,   -0.5,   -0.5,   -0.5,   -0.6,   -0.7,   -0.4,   -0.5,   -0.5,   -0.6,   -0.6,   -0.6,   -0.5,   -0.6,   -0.5,   -0.8,   -0.5
1999/03/10 19:20,  999.0,  999.0,  999.0,  999.0,   -0.3,   -0.3,   -0.2,   -0.3,   -0.1,   -0.3,   -0.4,   -0.4,   -0.5,   -0.5,   -0.4,   -0.5,   -0.6,   -0.7,   -0.5,   -0.5,   -0.5,   -0.6,   -0.6,   -0.6,   -0.6,   -0.6,   -0.6,   -0.5,   -0.6,   -0.6,   -0.6,   -0.6,   -0.6,   -0.4,   -0.6,   -0.7,   -0.7,   -0.6,   -0.5,   -0.5,   -0.8,   -0.5,   -0.4,   -0.6,   -0.5,   -0.6,   -0.5,   -0.3,   -0.5,   -0.4,   -0.7,   -0.6
1999/03/10 19:30,  999.0,  999.0,  999.0,   -1.3,   -0.3,   -0.3,   -0.3,   -0.4,   -0.4,   -0.5,   -0.5,   -0.4,   -0.4,   -0.4,   -0.5,   -0.5,   -0.5,   -0.5,   -0.5,   -0.5,   -0.6,   -0.5,   -0.7,   -0.5,   -0.4,   -0.6,   -0.5,   -0.5,   -0.5,   -0.5,   -0.6,   -0.5,   -0.5,   -0.5,   -0.5,   -0.6,   -0.5,   -0.5,   -0.5,   -0.5,   -0.6,   -0.6,   -0.5,   -0.5,   -0.6,   -0.6,   -0.5,   -0.6,   -0.5,   -0.6,   -0.5,   -0.5
1999/03/10 19:40,  999.0,  999.0,  999.0,  999.0,   -0.3,   -0.3,   -0.3,   -0.4,   -0.4,   -0.4,   -0.5,   -0.5,   -0.6,   -0.5,   -0.7,   -0.6,   -0.4,   -0.5,   -0.6,   -0.6,   -0.6,   -0.7,   -0.7,   -0.6,   -0.4,   -0.5,   -0.7,   -0.5,   -0.6,   -0.6,   -0.7,   -0.5,   -0.6,   -0.5,   -0.6,   -0.5,   -0.6,   -0.5,   -0.6,   -0.5,   -0.7,   -0.4,   -0.6,   -0.6,   -0.6,   -0.4,   -0.6,   -0.5,   -0.6,   -0.6,   -0.6,   -0.5
1999/03/10 19:50,  999.0,  999.0,  999.0,   -0.8,   -0.3,   -0.4,   -0.4,   -0.3,   -0.4,   -0.4,   -0.5,   -0.5,   -0.5,   -0.4,   -0.4,   -0.4,   -0.6,   -0.6,   -0.5,   -0.5,   -0.6,   -0.5,   -0.5,   -0.5,   -0.5,   -0.5,   -0.5,   -0.5,   -0.5,   -0.6,   -0.6,   -0.5,   -0.4,   -0.4,   -0.5,   -0.5,   -0.5,   -0.6,   -0.6,   -0.4,   -0.4,   -0.6,   -0.6,   -0.5,   -0.6,   -0.5,   -0.6,   -0.5,   -0.6,   -0.5,   -0.6,   -0.5
1999/03/10 20:00,  999.0,  999.0,  999.0,   -1.0,   -0.3,   -0.3,   -0.3,   -0.3,   -0.3,   -0.5,   -0.4,   -0.5,   -0.6,   -0.5,   -0.5,   -0.5,   -0.4,   -0.5,   -0.5,   -0.4,   -0.4,   -0.6,   -0.5,   -0.4,   -0.4,   -0.5,   -0.5,   -0.4,   -0.5,   -0.6,   -0.5,   -0.5,   -0.5,   -0.4,   -0.7,   -0.4,   -0.5,   -0.6,   -0.6,   -0.5,   -0.6,   -0.6,   -0.6,   -0.5,   -0.6,   -0.6,   -0.6,   -0.4,   -0.7,   -0.4,   -0.6,   -0.4
1999/03/10 20:10,  999.0,  999.0,  999.0,   -0.7,   -0.3,   -0.4,   -0.4,   -0.3,   -0.3,   -0.4,   -0.5,   -0.4,   -0.5,   -0.5,   -0.5,   -0.5,   -0.5,   -0.5,   -0.6,   -0.5,   -0.5,   -0.6,   -0.6,   -0.4,   -0.4,   -0.6,   -0.4,   -0.5,   -0.4,   -0.5,   -0.6,   -0.5,   -0.5,   -0.5,   -0.6,   -0.5,   -0.5,   -0.6,   -0.6,   -0.5,   -0.6,   -0.5,   -0.4,   -0.5,   -0.6,   -0.6,   -0.5,   -0.4,   -0.5,   -0.5,   -0.5,   -0.4
1999/03/10 20:20,  999.0,  999.0,  999.0,  999.0,   -0.3,   -0.4,   -0.6,   -0.4,   -0.5,   -0.5,   -0.6,   -0.5,   -0.6,   -0.5,   -0.5,   -0.5,   -0.5,   -0.5,   -0.6,   -0.2,   -0.6,   -0.5,   -0.6,   -0.5,   -0.5,   -0.5,   -0.6,   -0.6,   -0.6,   -0.5,   -0.6,   -0.6,   -0.6,   -0.5,   -0.6,   -0.6,   -0.5,   -0.6,   -0.7,   -0.6,   -0.5,   -0.5,   -0.7,   -0.6,   -0.7,   -0.5,   -0.4,   -0.5,   -0.5,   -0.5,   -0.5,   -0.5
1999/03/10 20:30,  999.0,  999.0,  999.0,   -1.0,   -0.3,   -0.4,   -0.4,   -0.5,   -0.4,   -0.4,   -0.6,   -0.4,   -0.6,   -0.4,   -0.5,   -0.5,   -0.5,   -0.6,   -0.5,   -0.5,   -0.5,   -0.5,   -0.5,   -0.4,   -0.5,   -0.5,   -0.6,   -0.4,   -0.5,   -0.5,   -0.5,   -0.4,   -0.6,   -0.5,   -0.6,   -0.5,   -0.5,   -0.5,   -0.6,   -0.5,   -0.6,   -0.4,   -0.7,   -0.5,   -0.5,   -0.5,   -0.6,   -0.5,   -0.4,   -0.5,   -0.6,   -0.5
1999/03/10 20:40,  999.0,  999.0,  999.0,   -1.2,   -0.3,   -0.4,   -0.5,   -0.4,   -0.4,   -0.5,   -0.5,   -0.4,   -0.4,   -0.5,   -0.5,   -0.4,   -0.6,   -0.6,   -0.6,   -0.4,   -0.5,   -0.5,   -0.6,   -0.5,   -0.4,   -0.5,   -0.5,   -0.5,   -0.6,   -0.5,   -0.6,   -0.5,   -0.4,   -0.6,   -0.6,   -0.5,   -0.6,   -0.6,   -0.6,   -0.5,   -0.5,   -0.6,   -0.6,   -0.4,   -0.5,   -0.5,   -0.5,   -0.6,   -0.7,   -0.5,   -0.6,   -0.5
1999/03/10 20:50,  999.0,  999.0,  999.0,  999.0,   -0.3,   -0.3,   -0.3,   -0.4,   -0.4,   -0.4,   -0.5,   -0.4,   -0.3,   -0.5,   -0.5,   -0.5,   -0.4,   -0.5,   -0.6,   -0.5,   -0.5,   -0.4,   -0.6,   -0.5,   -0.4,   -0.5,   -0.7,   -0.5,   -0.7,   -0.4,   -0.6,   -0.4,   -0.7,   -0.5,   -0.5,   -0.5,   -0.6,   -0.5,   -0.6,   -0.6,   -0.7,   -0.6,   -0.5,   -0.5,   -0.5,   -0.5,   -0.6,   -0.5,   -0.6,   -0.5,   -0.6,   -0.4
1999/03/10 21:00,  999.0,  999.0,  999.0,   -1.0,   -0.3,   -0.4,   -0.5,   -0.4,   -0.4,   -0.4,   -0.5,   -0.4,   -0.5,   -0.5,   -0.5,   -0.5,   -0.6,   -0.6,   -0.5,   -0.5,   -0.4,   -0.5,   -0.5,   -0.5,   -0.6,   -0.5,   -0.6,   -0.5,   -0.4,   -0.5,   -0.5,   -0.5,   -0.6,   -0.5,   -0.5,   -0.5,   -0.4,   -0.5,   -0.6,   -0.4,   -0.6,   -0.5,   -0.5,   -0.5,   -0.6,   -0.5,   -0.6,   -0.5,   -0.5,   -0.5,   -0.4,   -0.5
1999/03/10 21:10,  999.0,  999.0,  999.0,  999.0,   -0.2,   -0.4,   -0.4,   -0.4,   -0.4,   -0.4,   -0.4,   -0.5,   -0.5,   -0.5,   -0.4,   -0.6,   -0.4,   -0.5,   -0.5,   -0.5,   -0.6,   -0.6,   -0.6,   -0.5,   -0.5,   -0.6,   -0.6,   -0.5,   -0.5,   -0.5,   -0.5,   -0.6,   -0.5,   -0.6,   -0.5,   -0.5,   -0.5,   -0.7,   -0.7,   -0.5,   -0.6,   -0.6,   -0.6,   -0.6,   -0.4,   -0.5,   -0.5,   -0.7,   -0.5,   -0.5,   -0.5,   -0.6
1999/03/10 21:20,  999.0,  999.0,  999.0,  999.0,   -0.3,   -0.4,   -0.3,   -0.4,   -0.4,   -0.5,   -0.6,   -0.4,   -0.7,   -0.5,   -0.5,   -0.6,   -0.5,   -0.6,   -0.5,   -0.5,   -0.6,   -0.5,   -0.5,   -0.5,   -0.5,   -0.6,   -0.5,   -0.5,   -0.4,   -0.5,   -0.6,   -0.6,   -0.7,   -0.6,   -0.4,   -0.6,   -0.6,   -0.5,   -0.5,   -0.6,   -0.5,   -0.5,   -0.4,   -0.6,   -0.4,   -0.5,   -0.4,   -0.5,   -0.5,   -0.4,   -0.5,   -0.5
1999/03/10 21:30,  999.0,  999.0,  999.0,   -0.8,   -0.2,   -0.4,   -0.5,   -0.5,   -0.4,   -0.4,   -0.6,   -0.5,   -0.5,   -0.5,   -0.5,   -0.4,   -0.5,   -0.6,   -0.7,   -0.6,   -0.5,   -0.5,   -0.6,   -0.5,   -0.6,   -0.6,   -0.6,   -0.5,   -0.6,   -0.6,   -0.5,   -0.4,   -0.5,   -0.5,   -0.7,   -0.5,   -0.6,   -0.6,   -0.6,   -0.5,   -0.5,   -0.6,   -0.6,   -0.5,   -0.5,   -0.6,   -0.6,   -0.5,   -0.6,   -0.5,   -0.5,   -0.5
1999/03/10 21:40,  999.0,  999.0,  999.0,   -1.0,   -0.3,   -0.4,   -0.5,   -0.5,   -0.4,   -0.4,   -0.5,   -0.4,   -0.5,   -0.4,   -0.6,   -0.5,   -0.5,   -0.5,   -0.4,   -0.5,   -0.6,   -0.6,   -0.6,   -0.5,   -0.7,   -0.6,   -0.7,   -0.4,   -0.4,   -0.6,   -0.5,   -0.4,   -0.5,   -0.8,   -0.8,   -0.4,   -0.5,   -0.5,   -0.6,   -0.4,   -0.5,   -0.7,   -0.6,   -0.5,   -0.3,   -0.6,   -0.7,   -0.6,   -0.5,   -0.6,   -0.5,   -0.5
1999/03/10 21:50,  999.0,  999.0,  999.0,  999.0,   -0.2,   -0.4,   -0.5,   -0.5,   -0.4,   -0.5,   -0.5,   -0.5,   -0.4,   -0.5,   -0.5,   -0.6,   -0.6,   -0.6,   -0.5,   -0.6,   -0.5,   -0.6,   -0.5,   -0.6,   -0.6,   -0.6,   -0.6,   -0.6,   -0.6,   -0.6,   -0.6,   -0.6,   -0.5,   -0.6,   -0.5,   -0.5,   -0.5,   -0.6,   -0.5,   -0.6,   -0.5,   -0.6,   -0.5,   -0.6,   -0.5,   -0.6,   -0.6,   -0.6,   -0.4,   -0.5,   -0.6,   -0.7
1999/03/10 22:00,  999.0,  999.0,  999.0,   -0.6,   -0.2,   -0.3,   -0.4,   -0.3,   -0.4,   -0.3,   -0.5,   -0.4,   -0.7,   -0.4,   -0.5,   -0.5,   -0.4,   -0.5,   -0.6,   -0.5,   -0.4,   -0.5,   -0.6,   -0.4,   -0.6,   -0.4,   -0.6,   -0.5,   -0.5,   -0.6,   -0.5,   -0.4,   -0.6,   -0.5,   -0.5,   -0.5,   -0.6,   -0.6,   -0.6,   -0.4,   -0.5,   -0.7,   -0.5,   -0.5,   -0.7,   -0.5,   -0.6,   -0.5,   -0.6,   -0.6,   -0.7,   -0.5
1999/03/10 22:10,  999.0,  999.0,  999.0,  999.0,   -0.3,   -0.4,   -0.4,   -0.4,   -0.2,   -0.4,   -0.4,   -0.4,   -0.5,   -0.4,   -0.6,   -0.6,   -0.6,   -0.5,   -0.5,   -0.5,   -0.6,   -0.4,   -0.6,   -0.5,   -0.5,   -0.6,   -0.5,   -0.5,   -0.5,   -0.5,   -0.5,   -0.5,   -0.6,   -0.6,   -0.7,   -0.5,   -0.5,   -0.5,   -0.5,   -0.5,   -0.5,   -0.5,   -0.5,   -0.5,   -0.5,   -0.4,   -0.5,   -0.6,   -0.4,   -0.5,   -0.6,   -0.5
1999/03/10 22:20,  999.0,  999.0,  999.0,  999.0,   -0.3,   -0.4,   -0.5,   -0.4,   -0.4,   -0.5,   -0.5,   -0.5,   -0.5,   -0.5,   -0.4,   -0.4,   -0.5,   -0.6,   -0.5,   -0.5,   -0.5,   -0.5,   -0.5,   -0.5,   -0.5,   -0.6,   -0.5,   -0.6,   -0.5,   -0.5,   -0.5,   -0.4,   -0.4,   -0.7,   -0.4,   -0.5,   -0.4,   -0.5,   -0.6,   -0.5,   -0.5,   -0.3,   -0.6,   -0.5,   -0.6,   -0.5,   -0.4,   -0.5,   -0.4,   -0.5,   -0.5,   -0.5
1999/03/10 22:30,  999.0,  999.0,  999.0,  999.0,   -0.3,   -0.4,   -0.3,   -0.4,   -0.3,   -0.3,   -0.5,   -0.5,   -0.5,   -0.5,   -0.5,   -0.5,   -0.4,   -0.5,   -0.4,   -0.5,   -0.5,   -0.5,   -0.6,   -0.6,   -0.5,   -0.5,   -0.5,   -0.4,   -0.6,   -0.5,   -0.6,   -0.5,   -0.6,   -0.6,   -0.5,   -0.5,   -0.6,   -0.6,   -0.7,   -0.7,   -0.6,   -0.4,   -0.5,   -0.5,   -0.5,   -0.5,   -0.5,   -0.5,   -0.5,   -0.6,   -0.5,   -0.5
1999/03/10 22:40,  999.0,  999.0,  999.0,  999.0,   -0.1,   -0.4,   -0.5,   -0.4,   -0.3,   -0.5,   -0.5,   -0.5,   -0.5,   -0.5,   -0.5,   -0.5,   -0.6,   -0.6,   -0.5,   -0.5,   -0.4,   -0.4,   -0.4,   -0.5,   -0.6,   -0.6,   -0.5,   -0.5,   -0.5,   -0.7,   -0.5,   -0.4,   -0.6,   -0.5,   -0.6,   -0.5,   -0.5,   -0.6,   -0.6,   -0.4,   -0.6,   -0.6,   -0.5,   -0.5,   -0.6,   -0.5,   -0.5,   -0.4,   -0.6,   -0.4,   -0.6,   -0.5
1999/03/10 22:50,  999.0,  999.0,  999.0,   -0.4,   -0.1,   -0.3,   -0.4,   -0.4,   -0.2,   -0.5,   -0.6,   -0.5,   -0.6,   -0.4,   -0.5,   -0.5,   -0.6,   -0.6,   -0.7,   -0.5,   -0.5,   -0.5,   -0.5,   -0.5,   -0.5,   -0.5,   -0.6,   -0.5,   -0.6,   -0.5,   -0.5,   -0.4,   -0.6,   -0.5,   -0.5,   -0.4,   -0.4,   -0.5,   -0.6,   -0.5,   -0.6,   -0.6,   -0.5,   -0.4,   -0.4,   -0.4,   -0.5,   -0.5,   -0.6,   -0.5,   -0.6,   -0.5
1999/03/10 23:00,  999.0,  999.0,  999.0,  999.0,   -0.0,   -0.1,   -0.2,   -0.3,   -0.0,   -0.2,   -0.5,   -0.5,   -0.3,   -0.5,   -0.6,   -0.5,   -0.6,   -0.6,   -0.5,   -0.5,   -0.5,   -0.5,   -0.5,   -0.5,   -0.4,   -0.5,   -0.5,   -0.6,   -0.6,   -0.5,   -0.6,   -0.6,   -0.4,   -0.6,   -0.6,   -0.6,   -0.4,   -0.5,   -0.4,   -0.5,   -0.4,   -0.4,   -0.4,   -0.5,   -0.6,   -0.5,   -0.6,   -0.5,   -0.5,   -0.5,   -0.5,   -0.7
1999/03/10 23:10,  999.0,  999.0,  999.0,   -0.4,   -0.0,   -0.1,   -0.1,   -0.4,   -0.3,   -0.3,   -0.5,   -0.4,   -0.6,   -0.5,   -0.5,   -0.5,   -0.3,   -0.4,   -0.5,   -0.5,   -0.6,   -0.5,   -0.6,   -0.5,   -0.5,   -0.6,   -0.5,   -0.5,   -0.4,   -0.4,   -0.5,   -0.5,   -0.4,   -0.5,   -0.6,   -0.6,   -0.5,   -0.4,   -0.7,   -0.5,   -0.7,   -0.4,   -0.7,   -0.4,   -0.5,   -0.5,   -0.6,   -0.5,   -0.5,   -0.5,   -0.5,   -0.4
1999/03/10 23:20,  999.0,  999.0,  999.0,   -0.6,   -0.1,   -0.3,   -0.4,   -0.4,   -0.4,   -0.4,   -0.5,   -0.4,   -0.5,   -0.5,   -0.4,   -0.4,   -0.5,   -0.5,   -0.5,   -0.5,   -0.6,   -0.5,   -0.5,   -0.5,   -0.6,   -0.5,   -0.6,   -0.5,   -0.6,   -0.5,   -0.6,   -0.4,   -0.5,   -0.5,   -0.7,   -0.5,   -0.4,   -0.5,   -0.7,   -0.4,   -0.5,   -0.6,   -0.5,   -0.4,   -0.5,   -0.4,   -0.5,   -0.5,   -0.5,   -0.5,   -0.6,   -0.5
1999/03/10 23:30,  999.0,  999.0,  999.0,  999.0,   -0.3,   -0.4,   -0.7,   -0.4,   -0.5,   -0.6,   -0.5,   -0.5,   -0.7,   -0.5,   -0.6,   -0.6,   -0.5,   -0.6,   -0.6,   -0.4,   -0.5,   -0.6,   -0.6,   -0.4,   -0.6,   -0.5,   -0.5,   -0.5,   -0.6,   -0.6,   -0.7,   -0.4,   -0.6,   -0.5,   -0.4,   -0.6,   -0.5,   -0.6,   -0.9,   -0.6,   -0.6,   -0.6,   -0.5,   -0.4,   -0.4,   -0.5,   -0.8,   -0.5,   -0.5,   -0.5,   -0.7,   -0.6
1999/03/10 23:40,  999.0,  999.0,  999.0,   -0.8,   -0.3,   -0.5,   -0.4,   -0.4,   -0.4,   -0.4,   -0.4,   -0.4,   -0.4,   -0.5,   -0.5,   -0.5,   -0.6,   -0.4,   -0.5,   -0.4,   -0.3,   -0.6,   -0.6,   -0.6,   -0.5,   -0.5,   -0.5,   -0.5,   -0.5,   -0.5,   -0.5,   -0.5,   -0.5,   -0.5,   -0.5,   -0.5,   -0.4,   -0.6,   -0.7,   -0.5,   -0.6,   -0.6,   -0.5,   -0.4,   -0.5,   -0.5,   -0.6,   -0.5,   -0.5,   -0.5,   -0.6,   -0.5
1999/03/10 23:50,  999.0,  999.0,  999.0,  999.0,   -0.2,   -0.3,   -0.3,   -0.4,   -0.4,   -0.4,   -0.4,   -0.4,   -0.4,   -0.5,   -0.5,   -0.5,   -0.4,   -0.4,   -0.5,   -0.4,   -0.5,   -0.6,   -0.6,   -0.5,   -0.5,   -0.6,   -0.6,   -0.4,   -0.5,   -0.5,   -0.7,   -0.5,   -0.4,   -0.6,   -0.6,   -0.5,   -0.6,   -0.6,   -0.7,   -0.4,   -0.7,   -0.5,   -0.5,   -0.5,   -0.5,   -0.5,   -0.6,   -0.4,   -0.4,   -0.4,   -0.4,   -0.5
